Observation data for Weinert on 12/08/2018      Previous  Date       Current Mesonet Observations  Soil Data  Daily Summary Page  Observations in Plain Language
KWE1 080600Z 01011KT 01/00 A303 RMK A01 T00110002  RH  094%=      5-min Rain = 0.01
KWE1 080601Z 02009KT 01/00 A303 RMK A01 T00110002  RH  094%=      5-min Rain = 0
KWE1 080602Z 01011KT 01/00 A303 RMK A01 T00110002  RH  094%=      5-min Rain = 0
KWE1 080603Z 02011KT 01/00 A303 RMK A01 T00110002  RH  094%=      5-min Rain = 0
KWE1 080604Z 02012KT 01/00 A3029 RMK A01 T00110002  RH  094%=      5-min Rain = 0
KWE1 080605Z 02012KT 01/00 A3029 RMK A01 T00110002  RH  094%=      5-min Rain = 0
KWE1 080606Z 02010KT 01/00 A3029 RMK A01 T00110002  RH  094%=      5-min Rain = 0
KWE1 080607Z 02012KT 01/00 A3029 RMK A01 T00100001  RH  094%=      5-min Rain = 0
KWE1 080608Z 02012KT 01/00 A3029 RMK A01 T00110001  RH  094%=      5-min Rain = 0
KWE1 080609Z 02011KT 01/00 A3029 RMK A01 T00110002  RH  094%=      5-min Rain = 0.01
KWE1 080610Z 02013KT 01/00 A3029 RMK A01 T00110002  RH  094%=      5-min Rain = 0
KWE1 080611Z 01012KT 01/00 A3029 RMK A01 T00110001  RH  094%=      5-min Rain = 0
KWE1 080612Z 02012KT 01/00 A3029 RMK A01 T00100001  RH  094%=      5-min Rain = 0
KWE1 080613Z 02011KT 01/00 A3029 RMK A01 T00100001  RH  094%=      5-min Rain = 0
KWE1 080614Z 02011KT 01/00 A3029 RMK A01 T00100001  RH  094%=      5-min Rain = 0
KWE1 080615Z 02012KT 01/00 A3029 RMK A01 T00100001  RH  094%=      5-min Rain = 0.01
KWE1 080616Z 01010KT 01/00 A3029 RMK A01 T00100001  RH  094%=      5-min Rain = 0
KWE1 080617Z 02011KT 01/00 A3029 RMK A01 T00110002  RH  094%=      5-min Rain = 0
KWE1 080618Z 02012KT 01/00 A3029 RMK A01 T00110002  RH  094%=      5-min Rain = 0
KWE1 080619Z 02010KT 01/00 A3029 RMK A01 T00110001  RH  094%=      5-min Rain = 0
KWE1 080620Z 02009KT 01/00 A3029 RMK A01 T00110001  RH  094%=      5-min Rain = 0
KWE1 080621Z 01011KT 01/00 A3029 RMK A01 T00110002  RH  094%=      5-min Rain = 0
KWE1 080622Z 01012KT 01/00 A3029 RMK A01 T00110002  RH  094%=      5-min Rain = 0.01
KWE1 080623Z 02013KT 01/00 A3029 RMK A01 T00110002  RH  094%=      5-min Rain = 0
KWE1 080624Z 02011KT 01/00 A3029 RMK A01 T00110002  RH  094%=      5-min Rain = 0
KWE1 080625Z 01012KT 01/00 A3029 RMK A01 T00100001  RH  094%=      5-min Rain = 0
KWE1 080626Z 01010KT 01/00 A3029 RMK A01 T00110002  RH  094%=      5-min Rain = 0
KWE1 080627Z 01010KT 01/00 A3029 RMK A01 T00110002  RH  094%=      5-min Rain = 0.01
KWE1 080628Z 01011KT 01/00 A3029 RMK A01 T00110002  RH  094%=      5-min Rain = 0
KWE1 080629Z 01011KT 01/00 A3029 RMK A01 T00110002  RH  094%=      5-min Rain = 0
KWE1 080630Z 02009KT 01/00 A3029 RMK A01 T00110002  RH  094%=      5-min Rain = 0
KWE1 080631Z 02012KT 01/00 A3029 RMK A01 T00110002  RH  094%=      5-min Rain = 0
KWE1 080632Z 01010KT 01/00 A3029 RMK A01 T00110002  RH  094%=      5-min Rain = 0
KWE1 080633Z 02009KT 01/00 A3029 RMK A01 T00110002  RH  094%=      5-min Rain = 0
KWE1 080634Z 01012KT 01/00 A303 RMK A01 T00110002  RH  094%=      5-min Rain = 0
KWE1 080635Z 01011KT 01/00 A303 RMK A01 T00110002  RH  094%=      5-min Rain = 0.01
KWE1 080636Z 01008KT 01/00 A303 RMK A01 T00100001  RH  094%=      5-min Rain = 0
KWE1 080637Z 00009KT 01/00 A303 RMK A01 T00110002  RH  094%=      5-min Rain = 0
KWE1 080638Z 01010KT 01/00 A303 RMK A01 T00110002  RH  094%=      5-min Rain = 0
KWE1 080639Z 01010KT 01/00 A303 RMK A01 T00100001  RH  094%=      5-min Rain = 0
KWE1 080640Z 01010KT 01/00 A303 RMK A01 T00100001  RH  094%=      5-min Rain = 0
KWE1 080641Z 01008KT 01/00 A303 RMK A01 T00100001  RH  094%=      5-min Rain = 0
KWE1 080642Z 00009KT 01/00 A303 RMK A01 T00100001  RH  094%=      5-min Rain = 0
KWE1 080643Z 01009KT 01/00 A303 RMK A01 T00100001  RH  094%=      5-min Rain = 0
KWE1 080644Z 01011KT 01/00 A303 RMK A01 T00100001  RH  094%=      5-min Rain = 0
KWE1 080645Z 01012KT 01/00 A303 RMK A01 T00100001  RH  094%=      5-min Rain = 0
KWE1 080646Z 02011KT 01/00 A303 RMK A01 T00090001  RH  094%=      5-min Rain = 0.01
KWE1 080647Z 01012KT 01/00 A303 RMK A01 T00090000  RH  094%=      5-min Rain = 0
KWE1 080648Z 02011KT 01/00 A303 RMK A01 T00090000  RH  094%=      5-min Rain = 0
KWE1 080649Z 01013KT 01/00 A303 RMK A01 T00090000  RH  094%=      5-min Rain = 0
KWE1 080650Z 01012KT 01/00 A3029 RMK A01 T000900-0  RH  094%=      5-min Rain = 0
KWE1 080651Z 01013KT 01/00 A3029 RMK A01 T000900-0  RH  094%=      5-min Rain = 0
KWE1 080652Z 02012KT 01/00 A3029 RMK A01 T000900-0  RH  094%=      5-min Rain = 0
KWE1 080653Z 02013KT 01/M00 A3029 RMK A01 T00091001  RH  094%=      5-min Rain = 0
KWE1 080654Z 02013KT 01/00 A3029 RMK A01 T000900-0  RH  094%=      5-min Rain = 0
KWE1 080655Z 02012KT 01/00 A3029 RMK A01 T000900-0  RH  094%=      5-min Rain = 0
KWE1 080656Z 02010KT 01/00 A3029 RMK A01 T000900-0  RH  094%=      5-min Rain = 0.01
KWE1 080657Z 02009KT 01/00 A3029 RMK A01 T000900-0  RH  094%=      5-min Rain = 0
KWE1 080658Z 02012KT 01/00 A3029 RMK A01 T000900-0  RH  094%=      5-min Rain = 0
KWE1 080659Z 02012KT 01/00 A3029 RMK A01 T000900-0  RH  094%=      5-min Rain = 0
KWE1 080700Z 02012KT 01/M00 A3029 RMK A01 T00091001  RH  094%=      5-min Rain = 0
KWE1 080701Z 01013KT 01/M00 A3029 RMK A01 T00081001  RH  094%=      5-min Rain = 0
KWE1 080702Z 02010KT 01/M00 A3028 RMK A01 T00081001  RH  094%=      5-min Rain = 0
KWE1 080703Z 02012KT 01/M00 A3028 RMK A01 T00081001  RH  094%=      5-min Rain = 0
KWE1 080704Z 02015KT 01/M00 A3028 RMK A01 T00081001  RH  094%=      5-min Rain = 0
KWE1 080705Z 02013KT 01/M00 A3028 RMK A01 T00081001  RH  094%=      5-min Rain = 0
KWE1 080706Z 02011KT 01/M00 A3028 RMK A01 T00081001  RH  094%=      5-min Rain = 0
KWE1 080707Z 02014KT 01/M00 A3028 RMK A01 T00081001  RH  094%=      5-min Rain = 0
KWE1 080708Z 02011KT 01/M00 A3028 RMK A01 T00081001  RH  094%=      5-min Rain = 0
KWE1 080709Z 02009KT 01/M00 A3028 RMK A01 T00081001  RH  094%=      5-min Rain = 0
KWE1 080710Z 02008KT 01/M00 A3028 RMK A01 T00081001  RH  094%=      5-min Rain = 0.01
KWE1 080711Z 02010KT 01/M00 A3028 RMK A01 T00081001  RH  094%=      5-min Rain = 0
KWE1 080712Z 01008KT 01/M00 A3028 RMK A01 T00081001  RH  094%=      5-min Rain = 0
KWE1 080713Z 01010KT 01/00 A3028 RMK A01 T000900-0  RH  094%=      5-min Rain = 0
KWE1 080714Z 01012KT 01/00 A3028 RMK A01 T000900-0  RH  094%=      5-min Rain = 0
KWE1 080715Z 02013KT 01/00 A3028 RMK A01 T000900-0  RH  094%=      5-min Rain = 0
KWE1 080716Z 02012KT 01/00 A3028 RMK A01 T000900-0  RH  094%=      5-min Rain = 0
KWE1 080717Z 01012KT 01/00 A3028 RMK A01 T000900-0  RH  094%=      5-min Rain = 0
KWE1 080718Z 02011KT 01/00 A3028 RMK A01 T00090000  RH  094%=      5-min Rain = 0
KWE1 080719Z 01013KT 01/00 A3028 RMK A01 T000900-0  RH  094%=      5-min Rain = 0
KWE1 080720Z 02013KT 01/00 A3028 RMK A01 T000900-0  RH  094%=      5-min Rain = 0
KWE1 080721Z 02014KT 01/00 A3028 RMK A01 T000900-0  RH  094%=      5-min Rain = 0
KWE1 080722Z 02012KT 01/00 A3028 RMK A01 T000900-0  RH  094%=      5-min Rain = 0
KWE1 080723Z 02012KT 01/00 A3028 RMK A01 T000900-0  RH  094%=      5-min Rain = 0
KWE1 080724Z 02012KT 01/00 A3029 RMK A01 T000900-0  RH  094%=      5-min Rain = 0
KWE1 080725Z 02012KT 01/00 A3029 RMK A01 T000900-0  RH  094%=      5-min Rain = 0
KWE1 080726Z 02010KT 01/00 A3029 RMK A01 T000900-0  RH  094%=      5-min Rain = 0
KWE1 080727Z 02012KT 01/00 A3029 RMK A01 T000900-0  RH  094%=      5-min Rain = 0
KWE1 080728Z 02011KT 01/00 A3029 RMK A01 T000900-0  RH  094%=      5-min Rain = 0
KWE1 080729Z 02011KT 01/00 A3029 RMK A01 T000900-0  RH  094%=      5-min Rain = 0
KWE1 080730Z 02011KT 01/00 A3029 RMK A01 T000900-0  RH  094%=      5-min Rain = 0
KWE1 080731Z 02011KT 01/00 A3029 RMK A01 T00090000  RH  094%=      5-min Rain = 0
KWE1 080732Z 02012KT 01/00 A3029 RMK A01 T00090000  RH  094%=      5-min Rain = 0
KWE1 080733Z 02011KT 01/00 A3029 RMK A01 T00090000  RH  094%=      5-min Rain = 0
KWE1 080734Z 02009KT 01/00 A3029 RMK A01 T00090000  RH  094%=      5-min Rain = 0
KWE1 080735Z 01010KT 01/00 A3029 RMK A01 T00090000  RH  094%=      5-min Rain = 0
KWE1 080736Z 02008KT 01/00 A303 RMK A01 T00090000  RH  094%=      5-min Rain = 0.01
KWE1 080737Z 01008KT 01/00 A303 RMK A01 T00100001  RH  094%=      5-min Rain = 0
KWE1 080738Z 02012KT 01/00 A303 RMK A01 T00100001  RH  094%=      5-min Rain = 0
KWE1 080739Z 01010KT 01/00 A303 RMK A01 T00100001  RH  094%=      5-min Rain = 0
KWE1 080740Z 02012KT 01/00 A303 RMK A01 T00100001  RH  094%=      5-min Rain = 0
KWE1 080741Z 02009KT 01/00 A303 RMK A01 T00100001  RH  094%=      5-min Rain = 0
KWE1 080742Z 01009KT 01/00 A303 RMK A01 T00100000  RH  094%=      5-min Rain = 0
KWE1 080743Z 02011KT 01/00 A303 RMK A01 T00100001  RH  094%=      5-min Rain = 0
KWE1 080744Z 01010KT 01/00 A303 RMK A01 T00100001  RH  094%=      5-min Rain = 0.01
KWE1 080745Z 02011KT 01/00 A303 RMK A01 T00100001  RH  094%=      5-min Rain = 0
KWE1 080746Z 02013KT 01/00 A303 RMK A01 T00100000  RH  094%=      5-min Rain = 0
KWE1 080747Z 02011KT 01/00 A303 RMK A01 T00100001  RH  094%=      5-min Rain = 0
KWE1 080748Z 02012KT 01/00 A303 RMK A01 T00100000  RH  094%=      5-min Rain = 0
KWE1 080749Z 02013KT 01/00 A303 RMK A01 T00100000  RH  094%=      5-min Rain = 0
KWE1 080750Z 02010KT 01/00 A303 RMK A01 T000900-0  RH  094%=      5-min Rain = 0
KWE1 080751Z 01011KT 01/00 A303 RMK A01 T00090000  RH  094%=      5-min Rain = 0
KWE1 080752Z 01011KT 01/00 A303 RMK A01 T000900-0  RH  094%=      5-min Rain = 0.01
KWE1 080753Z 02009KT 01/00 A303 RMK A01 T00100000  RH  094%=      5-min Rain = 0
KWE1 080754Z 02011KT 01/00 A3029 RMK A01 T00100001  RH  094%=      5-min Rain = 0
KWE1 080755Z 02011KT 01/00 A3029 RMK A01 T00100001  RH  094%=      5-min Rain = 0
KWE1 080756Z 02013KT 01/00 A3029 RMK A01 T00100000  RH  094%=      5-min Rain = 0
KWE1 080757Z 02013KT 01/00 A3029 RMK A01 T00100000  RH  094%=      5-min Rain = 0.01
KWE1 080758Z 02011KT 01/00 A3029 RMK A01 T00100000  RH  094%=      5-min Rain = 0
KWE1 080759Z 02012KT 01/00 A3029 RMK A01 T00100001  RH  094%=      5-min Rain = 0
KWE1 080800Z 02012KT 01/00 A3029 RMK A01 T00100000  RH  094%=      5-min Rain = 0
KWE1 080801Z 02012KT 01/00 A3029 RMK A01 T00100001  RH  094%=      5-min Rain = 0
KWE1 080802Z 02013KT 01/00 A3029 RMK A01 T00100001  RH  094%=      5-min Rain = 0.01
KWE1 080803Z 02012KT 01/00 A3029 RMK A01 T00100001  RH  094%=      5-min Rain = 0
KWE1 080804Z 02011KT 01/00 A3029 RMK A01 T00090000  RH  094%=      5-min Rain = 0
KWE1 080805Z 02013KT 01/00 A3029 RMK A01 T00090000  RH  094%=      5-min Rain = 0
KWE1 080806Z 01013KT 01/00 A3029 RMK A01 T000900-0  RH  094%=      5-min Rain = 0
KWE1 080807Z 02012KT 01/M00 A3029 RMK A01 T00091001  RH  094%=      5-min Rain = 0
KWE1 080808Z 01012KT 01/M00 A3029 RMK A01 T00091001  RH  094%=      5-min Rain = 0
KWE1 080809Z 01012KT 01/00 A3029 RMK A01 T000900-0  RH  094%=      5-min Rain = 0.01
KWE1 080810Z 01011KT 01/00 A3029 RMK A01 T000900-0  RH  094%=      5-min Rain = 0
KWE1 080811Z 01009KT 01/00 A3029 RMK A01 T000900-0  RH  094%=      5-min Rain = 0
KWE1 080812Z 01011KT 01/00 A3029 RMK A01 T000900-0  RH  094%=      5-min Rain = 0
KWE1 080813Z 01012KT 01/00 A3029 RMK A01 T00090000  RH  094%=      5-min Rain = 0
KWE1 080814Z 02012KT 01/00 A3029 RMK A01 T000900-0  RH  094%=      5-min Rain = 0.01
KWE1 080815Z 01011KT 01/00 A3029 RMK A01 T00090000  RH  094%=      5-min Rain = 0
KWE1 080816Z 01010KT 01/00 A3029 RMK A01 T000900-0  RH  094%=      5-min Rain = 0
KWE1 080817Z 00012KT 01/00 A3029 RMK A01 T00090000  RH  094%=      5-min Rain = 0
KWE1 080818Z 01011KT 01/00 A3029 RMK A01 T000900-0  RH  094%=      5-min Rain = 0
KWE1 080819Z 01011KT 01/00 A3029 RMK A01 T00090000  RH  094%=      5-min Rain = 0
KWE1 080820Z 00010KT 01/00 A3029 RMK A01 T00090000  RH  094%=      5-min Rain = 0
KWE1 080821Z 01011KT 01/00 A3029 RMK A01 T000900-0  RH  094%=      5-min Rain = 0.01
KWE1 080822Z 01010KT 01/00 A3029 RMK A01 T000900-0  RH  094%=      5-min Rain = 0
KWE1 080823Z 01012KT 01/00 A3029 RMK A01 T00090000  RH  094%=      5-min Rain = 0
KWE1 080824Z 01011KT 01/00 A3029 RMK A01 T00090000  RH  094%=      5-min Rain = 0
KWE1 080825Z 02011KT 01/00 A3029 RMK A01 T00090000  RH  094%=      5-min Rain = 0
KWE1 080826Z 02010KT 01/00 A3029 RMK A01 T00090000  RH  094%=      5-min Rain = 0
KWE1 080827Z 02012KT 01/00 A3029 RMK A01 T000900-0  RH  094%=      5-min Rain = 0
KWE1 080828Z 02013KT 01/M00 A3029 RMK A01 T00081001  RH  094%=      5-min Rain = 0
KWE1 080829Z 01013KT 01/M00 A3029 RMK A01 T00081001  RH  094%=      5-min Rain = 0.01
KWE1 080830Z 02010KT 01/M00 A3029 RMK A01 T00081001  RH  094%=      5-min Rain = 0
KWE1 080831Z 02009KT 01/M00 A3029 RMK A01 T00081001  RH  094%=      5-min Rain = 0
KWE1 080832Z 02009G14KT 01/M00 A3029 RMK A01 T00081001  RH  094%=      5-min Rain = 0
KWE1 080833Z 02013KT 01/M00 A3029 RMK A01 T00081001  RH  094%=      5-min Rain = 0.01
KWE1 080834Z 02013KT 01/M00 A3029 RMK A01 T00081002  RH  093%=      5-min Rain = 0
KWE1 080835Z 02012KT 01/M00 A3029 RMK A01 T00071002  RH  093%=      5-min Rain = 0
KWE1 080836Z 02011KT 01/M00 A3029 RMK A01 T00071002  RH  093%=      5-min Rain = 0
KWE1 080837Z 03008KT 01/M00 A3029 RMK A01 T00071002  RH  093%=      5-min Rain = 0.01
KWE1 080838Z 02012KT 01/M00 A3029 RMK A01 T00071002  RH  093%=      5-min Rain = 0
KWE1 080839Z 03012KT 01/M00 A3029 RMK A01 T00071002  RH  093%=      5-min Rain = 0
KWE1 080840Z 02012KT 01/M00 A3029 RMK A01 T00071003  RH  093%=      5-min Rain = 0.01
KWE1 080841Z 03009KT 01/M00 A3029 RMK A01 T00071003  RH  093%=      5-min Rain = 0
KWE1 080842Z 03009KT 01/M00 A3029 RMK A01 T00071003  RH  093%=      5-min Rain = 0
KWE1 080843Z 03010KT 01/M00 A3029 RMK A01 T00071003  RH  093%=      5-min Rain = 0
KWE1 080844Z 03010KT 01/M00 A3029 RMK A01 T00071003  RH  093%=      5-min Rain = 0
KWE1 080845Z 02011KT 01/M00 A3029 RMK A01 T00071002  RH  093%=      5-min Rain = 0
KWE1 080846Z 03010KT 01/M00 A3029 RMK A01 T00071003  RH  093%=      5-min Rain = 0
KWE1 080847Z 03010KT 01/M00 A3029 RMK A01 T00071003  RH  093%=      5-min Rain = 0.01
KWE1 080848Z 02009KT 01/M00 A3029 RMK A01 T00071003  RH  093%=      5-min Rain = 0
KWE1 080849Z 02010KT 01/M00 A3029 RMK A01 T00071003  RH  093%=      5-min Rain = 0
KWE1 080850Z 02011KT 01/M00 A3029 RMK A01 T00071003  RH  093%=      5-min Rain = 0
KWE1 080851Z 02011KT 01/M00 A3029 RMK A01 T00071002  RH  093%=      5-min Rain = 0
KWE1 080852Z 02009KT 01/M00 A3029 RMK A01 T00071003  RH  093%=      5-min Rain = 0
KWE1 080853Z 02008KT 01/M00 A3029 RMK A01 T00071002  RH  093%=      5-min Rain = 0
KWE1 080854Z 02009KT 01/M00 A3029 RMK A01 T00081002  RH  093%=      5-min Rain = 0
KWE1 080855Z 02011KT 01/M00 A3028 RMK A01 T00081002  RH  093%=      5-min Rain = 0
KWE1 080856Z 03011KT 01/M00 A3028 RMK A01 T00071002  RH  093%=      5-min Rain = 0
KWE1 080857Z 03011KT 01/M00 A3028 RMK A01 T00081002  RH  093%=      5-min Rain = 0
KWE1 080858Z 03011KT 01/M00 A3028 RMK A01 T00071003  RH  093%=      5-min Rain = 0
KWE1 080859Z 02010KT 01/M00 A3028 RMK A01 T00071003  RH  093%=      5-min Rain = 0
KWE1 080900Z 03011KT 01/M00 A3028 RMK A01 T00071003  RH  093%=      5-min Rain = 0
KWE1 080901Z 02010KT 01/M00 A3028 RMK A01 T00071003  RH  093%=      5-min Rain = 0
KWE1 080902Z 02007KT 01/M00 A3028 RMK A01 T00071003  RH  093%=      5-min Rain = 0
KWE1 080903Z 02008KT 01/M00 A3028 RMK A01 T00071002  RH  093%=      5-min Rain = 0.01
KWE1 080904Z 03007KT 01/M00 A3028 RMK A01 T00071002  RH  093%=      5-min Rain = 0
KWE1 080905Z 02006KT 01/M00 A3028 RMK A01 T00071002  RH  093%=      5-min Rain = 0
KWE1 080906Z 03008KT 01/M00 A3028 RMK A01 T00071002  RH  093%=      5-min Rain = 0
KWE1 080907Z 02008KT 01/M00 A3028 RMK A01 T00071002  RH  093%=      5-min Rain = 0
KWE1 080908Z 03009KT 01/M00 A3029 RMK A01 T00071002  RH  093%=      5-min Rain = 0
KWE1 080909Z 02010KT 01/M00 A3029 RMK A01 T00071002  RH  093%=      5-min Rain = 0
KWE1 080910Z 02009KT 01/M00 A3029 RMK A01 T00071002  RH  093%=      5-min Rain = 0
KWE1 080911Z 02009KT 01/M00 A3028 RMK A01 T00071002  RH  093%=      5-min Rain = 0
KWE1 080912Z 02008KT 01/M00 A3028 RMK A01 T00081001  RH  094%=      5-min Rain = 0
KWE1 080913Z 02009KT 01/M00 A3028 RMK A01 T00081001  RH  094%=      5-min Rain = 0
KWE1 080914Z 02008KT 01/M00 A3028 RMK A01 T00081001  RH  094%=      5-min Rain = 0
KWE1 080915Z 01010KT 01/M00 A3028 RMK A01 T00081001  RH  094%=      5-min Rain = 0
KWE1 080916Z 03011KT 01/M00 A3028 RMK A01 T00081001  RH  094%=      5-min Rain = 0
KWE1 080917Z 02010KT 01/M00 A3028 RMK A01 T00081001  RH  094%=      5-min Rain = 0
KWE1 080918Z 02009KT 01/M00 A3028 RMK A01 T00081001  RH  093%=      5-min Rain = 0
KWE1 080919Z 02011KT 01/M00 A3028 RMK A01 T00081001  RH  094%=      5-min Rain = 0
KWE1 080920Z 02010KT 01/M00 A3028 RMK A01 T00081002  RH  093%=      5-min Rain = 0
KWE1 080921Z 02010KT 01/M00 A3028 RMK A01 T00081002  RH  094%=      5-min Rain = 0
KWE1 080922Z 02010KT 01/M00 A3028 RMK A01 T00081001  RH  094%=      5-min Rain = 0
KWE1 080923Z 02010KT 01/M00 A3028 RMK A01 T00081001  RH  094%=      5-min Rain = 0
KWE1 080924Z 02012KT 01/M00 A3028 RMK A01 T00081001  RH  094%=      5-min Rain = 0
KWE1 080925Z 02011KT 01/M00 A3028 RMK A01 T00081002  RH  094%=      5-min Rain = 0
KWE1 080926Z 02010KT 01/M00 A3028 RMK A01 T00081001  RH  094%=      5-min Rain = 0
KWE1 080927Z 02010KT 01/M00 A3028 RMK A01 T00081001  RH  094%=      5-min Rain = 0
KWE1 080928Z 02009KT 01/M00 A3028 RMK A01 T00081001  RH  094%=      5-min Rain = 0
KWE1 080929Z 02009KT 01/M00 A3028 RMK A01 T00081001  RH  094%=      5-min Rain = 0
KWE1 080930Z 02009KT 01/M00 A3028 RMK A01 T00081001  RH  094%=      5-min Rain = 0.01
KWE1 080931Z 02011KT 01/M00 A3028 RMK A01 T00081001  RH  094%=      5-min Rain = 0
KWE1 080932Z 02012KT 01/M00 A3027 RMK A01 T00081001  RH  094%=      5-min Rain = 0
KWE1 080933Z 02010KT 01/M00 A3028 RMK A01 T00081001  RH  094%=      5-min Rain = 0
KWE1 080934Z 01010G15KT 01/M00 A3027 RMK A01 T00081001  RH  094%=      5-min Rain = 0
KWE1 080935Z 02011KT 01/M00 A3027 RMK A01 T00081001  RH  094%=      5-min Rain = 0
KWE1 080936Z 02012KT 01/M00 A3027 RMK A01 T00081001  RH  094%=      5-min Rain = 0
KWE1 080937Z 02011KT 01/M00 A3027 RMK A01 T00081001  RH  094%=      5-min Rain = 0
KWE1 080938Z 02011KT 01/M00 A3027 RMK A01 T00081001  RH  094%=      5-min Rain = 0
KWE1 080939Z 02012KT 01/M00 A3027 RMK A01 T00081001  RH  094%=      5-min Rain = 0
KWE1 080940Z 02013KT 01/M00 A3027 RMK A01 T00081001  RH  094%=      5-min Rain = 0
KWE1 080941Z 02011KT 01/00 A3027 RMK A01 T000900-0  RH  094%=      5-min Rain = 0
KWE1 080942Z 01011KT 01/M00 A3027 RMK A01 T00081001  RH  094%=      5-min Rain = 0
KWE1 080943Z 01013KT 01/M00 A3027 RMK A01 T00081001  RH  094%=      5-min Rain = 0
KWE1 080944Z 02013KT 01/M00 A3027 RMK A01 T00081001  RH  094%=      5-min Rain = 0
KWE1 080945Z 02013KT 01/M00 A3027 RMK A01 T00081001  RH  094%=      5-min Rain = 0
KWE1 080946Z 02012KT 01/M00 A3027 RMK A01 T00081001  RH  094%=      5-min Rain = 0
KWE1 080947Z 02011KT 01/M00 A3027 RMK A01 T00081001  RH  093%=      5-min Rain = 0
KWE1 080948Z 02012G17KT 01/M00 A3027 RMK A01 T00081001  RH  093%=      5-min Rain = 0
KWE1 080949Z 02013KT 01/M00 A3027 RMK A01 T00081001  RH  093%=      5-min Rain = 0
KWE1 080950Z 01014KT 01/M00 A3027 RMK A01 T00081001  RH  093%=      5-min Rain = 0
KWE1 080951Z 02013KT 01/M00 A3027 RMK A01 T00081001  RH  093%=      5-min Rain = 0
KWE1 080952Z 02012KT 01/M00 A3027 RMK A01 T00081001  RH  094%=      5-min Rain = 0
KWE1 080953Z 02012KT 01/M00 A3027 RMK A01 T00081001  RH  094%=      5-min Rain = 0
KWE1 080954Z 02013KT 01/M00 A3027 RMK A01 T00081001  RH  094%=      5-min Rain = 0
KWE1 080955Z 02014KT 01/M00 A3027 RMK A01 T00081001  RH  094%=      5-min Rain = 0
KWE1 080956Z 01014KT 01/M00 A3027 RMK A01 T00081001  RH  094%=      5-min Rain = 0
KWE1 080957Z 02011KT 01/M00 A3027 RMK A01 T00081001  RH  094%=      5-min Rain = 0
KWE1 080958Z 02011G16KT 01/M00 A3027 RMK A01 T00081001  RH  094%=      5-min Rain = 0
KWE1 080959Z 01014KT 01/M00 A3027 RMK A01 T00081001  RH  094%=      5-min Rain = 0
KWE1 081000Z 01013KT 01/M00 A3027 RMK A01 T00081001  RH  094%=      5-min Rain = 0
KWE1 081001Z 02011KT 01/M00 A3027 RMK A01 T00081001  RH  094%=      5-min Rain = 0
KWE1 081002Z 02012KT 01/M00 A3027 RMK A01 T00081001  RH  094%=      5-min Rain = 0
KWE1 081003Z 01013KT 01/M00 A3027 RMK A01 T00081001  RH  094%=      5-min Rain = 0
KWE1 081004Z 01012KT 01/M00 A3027 RMK A01 T00081001  RH  094%=      5-min Rain = 0
KWE1 081005Z 01011KT 01/M00 A3027 RMK A01 T00081001  RH  094%=      5-min Rain = 0
KWE1 081006Z 01011KT 01/M00 A3027 RMK A01 T00081001  RH  094%=      5-min Rain = 0
KWE1 081007Z 01009KT 01/M00 A3027 RMK A01 T00081001  RH  094%=      5-min Rain = 0
KWE1 081008Z 01010KT 01/00 A3027 RMK A01 T000900-0  RH  094%=      5-min Rain = 0
KWE1 081009Z 01011KT 01/00 A3027 RMK A01 T000900-0  RH  094%=      5-min Rain = 0
KWE1 081010Z 01013KT 01/00 A3027 RMK A01 T000900-0  RH  094%=      5-min Rain = 0
KWE1 081011Z 01013KT 01/M00 A3027 RMK A01 T00091001  RH  094%=      5-min Rain = 0
KWE1 081012Z 01013KT 01/00 A3027 RMK A01 T000900-0  RH  094%=      5-min Rain = 0
KWE1 081013Z 01013KT 01/M00 A3027 RMK A01 T00081001  RH  094%=      5-min Rain = 0
KWE1 081014Z 02014KT 01/M00 A3027 RMK A01 T00081001  RH  094%=      5-min Rain = 0
KWE1 081015Z 02014KT 01/M00 A3027 RMK A01 T00081001  RH  094%=      5-min Rain = 0
KWE1 081016Z 02013KT 01/M00 A3027 RMK A01 T00081001  RH  094%=      5-min Rain = 0
KWE1 081017Z 02013KT 01/M00 A3027 RMK A01 T00081001  RH  094%=      5-min Rain = 0
KWE1 081018Z 02013KT 01/M00 A3027 RMK A01 T00081001  RH  094%=      5-min Rain = 0
KWE1 081019Z 01010KT 01/M00 A3026 RMK A01 T00081001  RH  094%=      5-min Rain = 0
KWE1 081020Z 01010KT 01/M00 A3026 RMK A01 T00081002  RH  094%=      5-min Rain = 0
KWE1 081021Z 02014KT 01/M00 A3026 RMK A01 T00081001  RH  094%=      5-min Rain = 0
KWE1 081022Z 01014KT 01/M00 A3026 RMK A01 T00081002  RH  094%=      5-min Rain = 0
KWE1 081023Z 01014KT 01/M00 A3026 RMK A01 T00071002  RH  093%=      5-min Rain = 0
KWE1 081024Z 01013KT 01/M00 A3026 RMK A01 T00071002  RH  093%=      5-min Rain = 0
KWE1 081025Z 02014KT 01/M00 A3026 RMK A01 T00071002  RH  093%=      5-min Rain = 0
KWE1 081026Z 02013KT 01/M00 A3026 RMK A01 T00081002  RH  093%=      5-min Rain = 0
KWE1 081027Z 02011KT 01/M00 A3026 RMK A01 T00071002  RH  093%=      5-min Rain = 0
KWE1 081028Z 02013KT 01/M00 A3026 RMK A01 T00071002  RH  093%=      5-min Rain = 0
KWE1 081029Z 01012KT 01/M00 A3026 RMK A01 T00081002  RH  093%=      5-min Rain = 0
KWE1 081030Z 02011KT 01/M00 A3026 RMK A01 T00081002  RH  093%=      5-min Rain = 0
KWE1 081031Z 01012KT 01/M00 A3026 RMK A01 T00081001  RH  093%=      5-min Rain = 0
KWE1 081032Z 02013KT 01/M00 A3026 RMK A01 T00081001  RH  093%=      5-min Rain = 0.01
KWE1 081033Z 02013KT 01/M00 A3026 RMK A01 T00081001  RH  093%=      5-min Rain = 0
KWE1 081034Z 02014KT 01/M00 A3026 RMK A01 T00081001  RH  093%=      5-min Rain = 0
KWE1 081035Z 02015KT 01/M00 A3026 RMK A01 T00081002  RH  093%=      5-min Rain = 0
KWE1 081036Z 02014KT 01/M00 A3026 RMK A01 T00071002  RH  093%=      5-min Rain = 0
KWE1 081037Z 02013KT 01/M00 A3026 RMK A01 T00071002  RH  093%=      5-min Rain = 0
KWE1 081038Z 01017KT 01/M00 A3026 RMK A01 T00071002  RH  093%=      5-min Rain = 0
KWE1 081039Z 01015KT 01/M00 A3026 RMK A01 T00071002  RH  093%=      5-min Rain = 0
KWE1 081040Z 01015KT 01/M00 A3026 RMK A01 T00071003  RH  093%=      5-min Rain = 0
KWE1 081041Z 01011KT 01/M00 A3026 RMK A01 T00071003  RH  093%=      5-min Rain = 0
KWE1 081042Z 01013KT 01/M00 A3026 RMK A01 T00071002  RH  093%=      5-min Rain = 0
KWE1 081043Z 01011KT 01/M00 A3026 RMK A01 T00071002  RH  093%=      5-min Rain = 0
KWE1 081044Z 01012KT 01/M00 A3026 RMK A01 T00071002  RH  093%=      5-min Rain = 0
KWE1 081045Z 01011KT 01/M00 A3026 RMK A01 T00071002  RH  093%=      5-min Rain = 0
KWE1 081046Z 01015KT 01/M00 A3026 RMK A01 T00071003  RH  093%=      5-min Rain = 0.01
KWE1 081047Z 01012KT 01/M00 A3027 RMK A01 T00071003  RH  093%=      5-min Rain = 0
KWE1 081048Z 01013KT 01/M00 A3027 RMK A01 T00061003  RH  093%=      5-min Rain = 0
KWE1 081049Z 02015KT 01/M00 A3027 RMK A01 T00061004  RH  093%=      5-min Rain = 0
KWE1 081050Z 01016KT 01/M00 A3027 RMK A01 T00051004  RH  093%=      5-min Rain = 0.01
KWE1 081051Z 01016KT 01/M01 A3027 RMK A01 T00051005  RH  093%=      5-min Rain = 0
KWE1 081052Z 01016KT 01/M00 A3027 RMK A01 T00051004  RH  093%=      5-min Rain = 0
KWE1 081053Z 01012KT 01/M01 A3027 RMK A01 T00051005  RH  093%=      5-min Rain = 0
KWE1 081054Z 01014KT 01/M01 A3026 RMK A01 T00051005  RH  093%=      5-min Rain = 0
KWE1 081055Z 01015KT 01/M01 A3026 RMK A01 T00051005  RH  093%=      5-min Rain = 0
KWE1 081056Z 01013KT 01/M01 A3026 RMK A01 T00051005  RH  093%=      5-min Rain = 0.01
KWE1 081057Z 01013KT 01/M01 A3026 RMK A01 T00051005  RH  093%=      5-min Rain = 0
KWE1 081058Z 01014KT 01/M01 A3026 RMK A01 T00051005  RH  093%=      5-min Rain = 0
KWE1 081059Z 01015KT 01/M01 A3026 RMK A01 T00051005  RH  093%=      5-min Rain = 0
KWE1 081100Z 01014KT 01/M01 A3026 RMK A01 T00051005  RH  093%=      5-min Rain = 0.01
KWE1 081101Z 01013KT 01/M01 A3026 RMK A01 T00051005  RH  093%=      5-min Rain = 0
KWE1 081102Z 01017KT 01/M00 A3026 RMK A01 T00051004  RH  094%=      5-min Rain = 0
KWE1 081103Z 01016KT 01/M01 A3026 RMK A01 T00051005  RH  094%=      5-min Rain = 0
KWE1 081104Z 01014KT 00/M01 A3026 RMK A01 T00041005  RH  093%=      5-min Rain = 0.01
KWE1 081105Z 01014KT 00/M01 A3026 RMK A01 T00041005  RH  093%=      5-min Rain = 0
KWE1 081106Z 01016KT 00/M01 A3026 RMK A01 T00041005  RH  094%=      5-min Rain = 0
KWE1 081107Z 01014KT 00/M01 A3026 RMK A01 T00041005  RH  094%=      5-min Rain = 0.01
KWE1 081108Z 02013KT 00/M01 A3026 RMK A01 T00041005  RH  094%=      5-min Rain = 0
KWE1 081109Z 01014KT 00/M01 A3026 RMK A01 T00041005  RH  094%=      5-min Rain = 0
KWE1 081110Z 01013G18KT 00/M01 A3026 RMK A01 T00041005  RH  094%=      5-min Rain = 0.01
KWE1 081111Z 02015KT 00/M01 A3026 RMK A01 T00041005  RH  094%=      5-min Rain = 0
KWE1 081112Z 01014KT 00/M01 A3026 RMK A01 T00041005  RH  094%=      5-min Rain = 0.01
KWE1 081113Z 02013KT 00/M01 A3026 RMK A01 T00041005  RH  094%=      5-min Rain = 0
KWE1 081114Z 01012KT 00/M01 A3026 RMK A01 T00041005  RH  094%=      5-min Rain = 0
KWE1 081115Z 01011KT 00/M01 A3026 RMK A01 T00041005  RH  094%=      5-min Rain = 0
KWE1 081116Z 01013KT 00/M01 A3026 RMK A01 T00041005  RH  094%=      5-min Rain = 0.01
KWE1 081117Z 01015KT 00/M01 A3026 RMK A01 T00041005  RH  094%=      5-min Rain = 0
KWE1 081118Z 01013KT 00/M01 A3026 RMK A01 T00041005  RH  094%=      5-min Rain = 0
KWE1 081119Z 01014KT 00/M01 A3027 RMK A01 T00041005  RH  094%=      5-min Rain = 0.01
KWE1 081120Z 01015KT 00/M01 A3027 RMK A01 T00041005  RH  094%=      5-min Rain = 0
KWE1 081121Z 01014KT 00/M01 A3027 RMK A01 T00031006  RH  094%=      5-min Rain = 0
KWE1 081122Z 01014KT 00/M01 A3027 RMK A01 T00031006  RH  094%=      5-min Rain = 0
KWE1 081123Z 01015KT 00/M01 A3027 RMK A01 T00031007  RH  094%=      5-min Rain = 0.01
KWE1 081124Z 01014KT 00/M01 A3027 RMK A01 T00021007  RH  094%=      5-min Rain = 0
KWE1 081125Z 01016KT 00/M01 A3027 RMK A01 T00021007  RH  094%=      5-min Rain = 0
KWE1 081126Z 01015KT 00/M01 A3027 RMK A01 T00021007  RH  094%=      5-min Rain = 0.01
KWE1 081127Z 01013KT 00/M01 A3027 RMK A01 T00021007  RH  094%=      5-min Rain = 0
KWE1 081128Z 01014KT 00/M01 A3027 RMK A01 T00021007  RH  094%=      5-min Rain = 0
KWE1 081129Z 01013KT 00/M01 A3027 RMK A01 T00021007  RH  094%=      5-min Rain = 0
KWE1 081130Z 01012KT 00/M01 A3027 RMK A01 T00021007  RH  094%=      5-min Rain = 0.01
KWE1 081131Z 01010KT 00/M01 A3027 RMK A01 T00021007  RH  094%=      5-min Rain = 0
KWE1 081132Z 01013G18KT 00/M01 A3027 RMK A01 T00021007  RH  094%=      5-min Rain = 0
KWE1 081133Z 01015KT 00/M01 A3027 RMK A01 T00021008  RH  094%=      5-min Rain = 0
KWE1 081134Z 02014KT 00/M01 A3027 RMK A01 T00011008  RH  094%=      5-min Rain = 0
KWE1 081135Z 02015KT 00/M01 A3027 RMK A01 T00011008  RH  094%=      5-min Rain = 0
KWE1 081136Z 01013KT 00/M01 A3027 RMK A01 T00011008  RH  094%=      5-min Rain = 0.01
KWE1 081137Z 01013KT 00/M01 A3027 RMK A01 T00011008  RH  094%=      5-min Rain = 0
KWE1 081138Z 02011KT 00/M01 A3027 RMK A01 T00011008  RH  094%=      5-min Rain = 0
KWE1 081139Z 02014KT 00/M01 A3027 RMK A01 T00011008  RH  094%=      5-min Rain = 0
KWE1 081140Z 02012G17KT 00/M01 A3027 RMK A01 T00011008  RH  094%=      5-min Rain = 0
KWE1 081141Z 01015KT 00/M01 A3027 RMK A01 T00011008  RH  094%=      5-min Rain = 0
KWE1 081142Z 02013KT 00/M01 A3027 RMK A01 T00011008  RH  094%=      5-min Rain = 0
KWE1 081143Z 02011KT 00/M01 A3027 RMK A01 T00011008  RH  094%=      5-min Rain = 0.01
KWE1 081144Z 01013KT 00/M01 A3027 RMK A01 T00011008  RH  094%=      5-min Rain = 0
KWE1 081145Z 01011KT 00/M01 A3027 RMK A01 T00011008  RH  094%=      5-min Rain = 0
KWE1 081146Z 01012KT 00/M01 A3027 RMK A01 T00011008  RH  094%=      5-min Rain = 0
KWE1 081147Z 01013KT 00/M01 A3027 RMK A01 T00011008  RH  094%=      5-min Rain = 0
KWE1 081148Z 01012KT 00/M01 A3027 RMK A01 T00011008  RH  094%=      5-min Rain = 0
KWE1 081149Z 02011KT 00/M01 A3027 RMK A01 T00011008  RH  094%=      5-min Rain = 0
KWE1 081150Z 02010KT 00/M01 A3028 RMK A01 T00011008  RH  094%=      5-min Rain = 0
KWE1 081151Z 02013KT 00/M01 A3028 RMK A01 T00011008  RH  094%=      5-min Rain = 0.01
KWE1 081152Z 02013KT 00/M01 A3028 RMK A01 T00011008  RH  094%=      5-min Rain = 0
KWE1 081153Z 02011KT 00/M01 A3028 RMK A01 T00011008  RH  094%=      5-min Rain = 0
KWE1 081154Z 02010KT 00/M01 A3028 RMK A01 T00011008  RH  094%=      5-min Rain = 0
KWE1 081155Z 02011KT 00/M01 A3028 RMK A01 T00011008  RH  094%=      5-min Rain = 0
KWE1 081156Z 02011KT 00/M01 A3028 RMK A01 T00011008  RH  094%=      5-min Rain = 0
KWE1 081157Z 02012KT 00/M01 A3028 RMK A01 T00011008  RH  094%=      5-min Rain = 0
KWE1 081158Z 02011KT 00/M01 A3028 RMK A01 T00011008  RH  094%=      5-min Rain = 0
KWE1 081159Z 02011KT 00/M01 A3028 RMK A01 T00011008  RH  094%=      5-min Rain = 0
KWE1 081200Z 02009KT 00/M01 A3028 RMK A01 T00011008  RH  094%=      5-min Rain = 0
KWE1 081201Z 02010KT 00/M01 A3028 RMK A01 T00011008  RH  094%=      5-min Rain = 0
KWE1 081202Z 02010KT 00/M01 A3028 RMK A01 T00011008  RH  094%=      5-min Rain = 0
KWE1 081203Z 02010KT 00/M01 A3028 RMK A01 T00011008  RH  094%=      5-min Rain = 0
KWE1 081204Z 02011KT 00/M01 A3028 RMK A01 T00011008  RH  094%=      5-min Rain = 0
KWE1 081205Z 02012KT 00/M01 A3028 RMK A01 T00011008  RH  094%=      5-min Rain = 0
KWE1 081206Z 02010KT 00/M01 A3028 RMK A01 T00011008  RH  094%=      5-min Rain = 0
KWE1 081207Z 03009KT 00/M01 A3028 RMK A01 T00011008  RH  094%=      5-min Rain = 0
KWE1 081208Z 02009KT 00/M01 A3028 RMK A01 T00011008  RH  094%=      5-min Rain = 0
KWE1 081209Z 01008KT 00/01 A3028 RMK A01 T000000-9  RH  094%=      5-min Rain = 0
KWE1 081210Z 02009KT 00/01 A3028 RMK A01 T000000-9  RH  094%=      5-min Rain = 0
KWE1 081211Z 02010KT 00/M01 A3028 RMK A01 T00011008  RH  094%=      5-min Rain = 0
KWE1 081212Z 01009KT 00/M01 A3028 RMK A01 T00011008  RH  094%=      5-min Rain = 0
KWE1 081213Z 01009KT 00/M01 A3028 RMK A01 T00011008  RH  094%=      5-min Rain = 0
KWE1 081214Z 01008KT 00/M01 A3028 RMK A01 T00011008  RH  094%=      5-min Rain = 0
KWE1 081215Z 01010KT 00/M01 A3028 RMK A01 T00011008  RH  094%=      5-min Rain = 0
KWE1 081216Z 01010KT 00/M01 A3028 RMK A01 T00011008  RH  094%=      5-min Rain = 0
KWE1 081217Z 01011KT 00/M01 A3028 RMK A01 T00011008  RH  094%=      5-min Rain = 0
KWE1 081218Z 01010KT 00/01 A3028 RMK A01 T000000-8  RH  094%=      5-min Rain = 0
KWE1 081219Z 01010KT 00/M01 A3028 RMK A01 T00011008  RH  094%=      5-min Rain = 0
KWE1 081220Z 02010KT 00/01 A3028 RMK A01 T000000-8  RH  094%=      5-min Rain = 0
KWE1 081221Z 01012KT 00/01 A3028 RMK A01 T00-000-9  RH  094%=      5-min Rain = 0
KWE1 081222Z 01012KT 00/01 A3028 RMK A01 T00-000-9  RH  094%=      5-min Rain = 0
KWE1 081223Z 02012KT M00/M01 A3028 RMK A01 T10011009  RH  094%=      5-min Rain = 0
KWE1 081224Z 01012KT M00/M01 A3028 RMK A01 T10011009  RH  094%=      5-min Rain = 0
KWE1 081225Z 01013KT M00/M01 A3028 RMK A01 T10011010  RH  094%=      5-min Rain = 0
KWE1 081226Z 01011KT M00/M01 A3028 RMK A01 T10011010  RH  094%=      5-min Rain = 0
KWE1 081227Z 01012KT M00/M01 A3028 RMK A01 T10011009  RH  094%=      5-min Rain = 0
KWE1 081228Z 02014KT M00/M01 A3028 RMK A01 T10011010  RH  094%=      5-min Rain = 0
KWE1 081229Z 01012KT M00/M01 A3028 RMK A01 T10011010  RH  094%=      5-min Rain = 0
KWE1 081230Z 02011KT M00/M01 A3028 RMK A01 T10011010  RH  094%=      5-min Rain = 0
KWE1 081231Z 02012KT M00/M01 A3029 RMK A01 T10011010  RH  094%=      5-min Rain = 0
KWE1 081232Z 02012KT M00/M01 A3029 RMK A01 T10011010  RH  094%=      5-min Rain = 0
KWE1 081233Z 02011KT M00/M01 A3029 RMK A01 T10011010  RH  094%=      5-min Rain = 0
KWE1 081234Z 02009KT M00/M01 A3029 RMK A01 T10011010  RH  094%=      5-min Rain = 0
KWE1 081235Z 02009KT M00/M01 A3029 RMK A01 T10011010  RH  094%=      5-min Rain = 0
KWE1 081236Z 02012KT M00/M01 A3029 RMK A01 T10011010  RH  094%=      5-min Rain = 0
KWE1 081237Z 01010KT M00/M01 A3029 RMK A01 T10011010  RH  094%=      5-min Rain = 0
KWE1 081238Z 02010KT M00/M01 A3029 RMK A01 T10011010  RH  094%=      5-min Rain = 0
KWE1 081239Z 02011KT M00/M01 A3029 RMK A01 T10011009  RH  094%=      5-min Rain = 0
KWE1 081240Z 02011KT M00/M01 A3029 RMK A01 T10011009  RH  094%=      5-min Rain = 0
KWE1 081241Z 02011KT M00/M01 A3029 RMK A01 T10011010  RH  094%=      5-min Rain = 0
KWE1 081242Z 02009KT M00/M01 A3029 RMK A01 T10021010  RH  094%=      5-min Rain = 0
KWE1 081243Z 02009KT M00/M01 A3029 RMK A01 T10021010  RH  094%=      5-min Rain = 0
KWE1 081244Z 01009KT M00/M01 A3029 RMK A01 T10021010  RH  094%=      5-min Rain = 0
KWE1 081245Z 01009KT M00/M01 A3029 RMK A01 T10021010  RH  094%=      5-min Rain = 0
KWE1 081246Z 01009KT M00/M01 A3029 RMK A01 T10021010  RH  094%=      5-min Rain = 0
KWE1 081247Z 01011KT M00/M01 A3029 RMK A01 T10021010  RH  094%=      5-min Rain = 0
KWE1 081248Z 00010KT M00/M01 A3029 RMK A01 T10021010  RH  094%=      5-min Rain = 0
KWE1 081249Z 00012KT M00/M01 A3029 RMK A01 T10021010  RH  094%=      5-min Rain = 0
KWE1 081250Z 00011KT M00/M01 A3029 RMK A01 T10031011  RH  094%=      5-min Rain = 0
KWE1 081251Z 00013KT M00/M01 A3029 RMK A01 T10031011  RH  094%=      5-min Rain = 0
KWE1 081252Z 01011KT M00/M01 A3029 RMK A01 T10031011  RH  094%=      5-min Rain = 0
KWE1 081253Z 01014KT M00/M01 A3029 RMK A01 T10031011  RH  094%=      5-min Rain = 0
KWE1 081254Z 01013KT M00/M01 A3029 RMK A01 T10031011  RH  094%=      5-min Rain = 0
KWE1 081255Z 01011KT M00/M01 A3029 RMK A01 T10031011  RH  094%=      5-min Rain = 0
KWE1 081256Z 01013KT M00/M01 A3029 RMK A01 T10041012  RH  094%=      5-min Rain = 0
KWE1 081257Z 01011G16KT M00/M01 A3029 RMK A01 T10041012  RH  094%=      5-min Rain = 0
KWE1 081258Z 01012KT M00/M01 A3029 RMK A01 T10041012  RH  094%=      5-min Rain = 0
KWE1 081259Z 01011KT M00/M01 A3029 RMK A01 T10041012  RH  094%=      5-min Rain = 0
KWE1 081300Z 01011KT M00/M01 A303 RMK A01 T10031012  RH  094%=      5-min Rain = 0
KWE1 081301Z 02013KT M00/M01 A303 RMK A01 T10041012  RH  094%=      5-min Rain = 0
KWE1 081302Z 01011KT M00/M01 A303 RMK A01 T10031011  RH  094%=      5-min Rain = 0
KWE1 081303Z 01011KT M00/M01 A303 RMK A01 T10041012  RH  094%=      5-min Rain = 0
KWE1 081304Z 00012KT M00/M01 A303 RMK A01 T10041012  RH  094%=      5-min Rain = 0
KWE1 081305Z 00011KT M00/M01 A303 RMK A01 T10031011  RH  094%=      5-min Rain = 0
KWE1 081306Z 00011KT M00/M01 A303 RMK A01 T10041012  RH  094%=      5-min Rain = 0
KWE1 081307Z 01011KT M00/M01 A303 RMK A01 T10041012  RH  094%=      5-min Rain = 0
KWE1 081308Z 36010KT M00/M01 A303 RMK A01 T10041012  RH  094%=      5-min Rain = 0
KWE1 081309Z 00012KT M00/M01 A303 RMK A01 T10041012  RH  094%=      5-min Rain = 0
KWE1 081310Z 01011KT M00/M01 A303 RMK A01 T10041012  RH  094%=      5-min Rain = 0
KWE1 081311Z 00012KT M01/M01 A303 RMK A01 T10051012  RH  094%=      5-min Rain = 0
KWE1 081312Z 01010KT M00/M01 A303 RMK A01 T10041012  RH  094%=      5-min Rain = 0
KWE1 081313Z 00011KT M00/M01 A303 RMK A01 T10041012  RH  094%=      5-min Rain = 0
KWE1 081314Z 01013KT M01/M01 A303 RMK A01 T10051013  RH  094%=      5-min Rain = 0
KWE1 081315Z 01014KT M00/M01 A303 RMK A01 T10041012  RH  094%=      5-min Rain = 0
KWE1 081316Z 01011KT M00/M01 A303 RMK A01 T10041012  RH  094%=      5-min Rain = 0
KWE1 081317Z 01009KT M00/M01 A303 RMK A01 T10041012  RH  094%=      5-min Rain = 0
KWE1 081318Z 01012KT M00/M01 A303 RMK A01 T10041012  RH  094%=      5-min Rain = 0
KWE1 081319Z 02012KT M00/M01 A303 RMK A01 T10041012  RH  094%=      5-min Rain = 0
KWE1 081320Z 01011KT M01/M01 A303 RMK A01 T10051012  RH  094%=      5-min Rain = 0
KWE1 081321Z 01012KT M00/M01 A303 RMK A01 T10041012  RH  094%=      5-min Rain = 0
KWE1 081322Z 01010KT M01/M01 A303 RMK A01 T10051012  RH  094%=      5-min Rain = 0
KWE1 081323Z 02010KT M00/M01 A303 RMK A01 T10041012  RH  094%=      5-min Rain = 0
KWE1 081324Z 01010KT M00/M01 A303 RMK A01 T10041012  RH  094%=      5-min Rain = 0
KWE1 081325Z 01011KT M00/M01 A303 RMK A01 T10041012  RH  095%=      5-min Rain = 0
KWE1 081326Z 01011KT M01/M01 A303 RMK A01 T10051012  RH  095%=      5-min Rain = 0
KWE1 081327Z 01011KT M01/M01 A303 RMK A01 T10051012  RH  095%=      5-min Rain = 0
KWE1 081328Z 01009KT M00/M01 A303 RMK A01 T10041012  RH  095%=      5-min Rain = 0
KWE1 081329Z 00008KT M00/M01 A303 RMK A01 T10041012  RH  095%=      5-min Rain = 0
KWE1 081330Z 00009KT M01/M01 A303 RMK A01 T10051012  RH  095%=      5-min Rain = 0
KWE1 081331Z 01009KT M01/M01 A303 RMK A01 T10051012  RH  095%=      5-min Rain = 0
KWE1 081332Z 00009KT M01/M01 A303 RMK A01 T10051012  RH  095%=      5-min Rain = 0
KWE1 081333Z 00009KT M00/M01 A303 RMK A01 T10041012  RH  095%=      5-min Rain = 0
KWE1 081334Z 00010KT M01/M01 A303 RMK A01 T10051013  RH  095%=      5-min Rain = 0
KWE1 081335Z 36008KT M01/M01 A303 RMK A01 T10051013  RH  095%=      5-min Rain = 0
KWE1 081336Z 01008KT M01/M01 A303 RMK A01 T10051013  RH  095%=      5-min Rain = 0
KWE1 081337Z 36008KT M01/M01 A303 RMK A01 T10051013  RH  095%=      5-min Rain = 0
KWE1 081338Z 00011KT M01/M01 A303 RMK A01 T10051012  RH  095%=      5-min Rain = 0
KWE1 081339Z 00011KT M01/M01 A303 RMK A01 T10051013  RH  095%=      5-min Rain = 0
KWE1 081340Z 01010KT M01/M01 A303 RMK A01 T10051013  RH  095%=      5-min Rain = 0
KWE1 081341Z 00013KT M01/M01 A303 RMK A01 T10051013  RH  095%=      5-min Rain = 0
KWE1 081342Z 01011KT M01/M01 A303 RMK A01 T10061013  RH  095%=      5-min Rain = 0
KWE1 081343Z 00010KT M01/M01 A303 RMK A01 T10061013  RH  095%=      5-min Rain = 0
KWE1 081344Z 00012KT M01/M01 A303 RMK A01 T10061013  RH  095%=      5-min Rain = 0
KWE1 081345Z 00011KT M01/M01 A303 RMK A01 T10061014  RH  095%=      5-min Rain = 0
KWE1 081346Z 00011KT M01/M01 A303 RMK A01 T10061014  RH  095%=      5-min Rain = 0
KWE1 081347Z 00011KT M01/M01 A303 RMK A01 T10061014  RH  095%=      5-min Rain = 0
KWE1 081348Z 01010KT M01/M01 A303 RMK A01 T10061014  RH  095%=      5-min Rain = 0
KWE1 081349Z 00012KT M01/M01 A3031 RMK A01 T10061014  RH  095%=      5-min Rain = 0
KWE1 081350Z 00011KT M01/M01 A3031 RMK A01 T10061013  RH  095%=      5-min Rain = 0
KWE1 081351Z 01010KT M01/M01 A3031 RMK A01 T10061014  RH  095%=      5-min Rain = 0
KWE1 081352Z 00010KT M01/M01 A3031 RMK A01 T10061014  RH  095%=      5-min Rain = 0
KWE1 081353Z 00011KT M01/M01 A3031 RMK A01 T10061014  RH  095%=      5-min Rain = 0
KWE1 081354Z 00011KT M01/M01 A3031 RMK A01 T10061014  RH  095%=      5-min Rain = 0
KWE1 081355Z 01010KT M01/M01 A3031 RMK A01 T10061014  RH  095%=      5-min Rain = 0
KWE1 081356Z 00009KT M01/M01 A3031 RMK A01 T10061014  RH  095%=      5-min Rain = 0
KWE1 081357Z 00010KT M01/M01 A3031 RMK A01 T10061014  RH  095%=      5-min Rain = 0
KWE1 081358Z 01010KT M01/M01 A3031 RMK A01 T10061013  RH  095%=      5-min Rain = 0
KWE1 081359Z 00009KT M01/M01 A3031 RMK A01 T10061013  RH  095%=      5-min Rain = 0
KWE1 081400Z 00008KT M01/M01 A3031 RMK A01 T10061014  RH  095%=      5-min Rain = 0
KWE1 081401Z 00009KT M01/M01 A3031 RMK A01 T10061013  RH  095%=      5-min Rain = 0
KWE1 081402Z 00012KT M01/M01 A3031 RMK A01 T10061014  RH  095%=      5-min Rain = 0
KWE1 081403Z 01012KT M01/M01 A3031 RMK A01 T10071014  RH  095%=      5-min Rain = 0
KWE1 081404Z 01011KT M01/M01 A3031 RMK A01 T10071014  RH  095%=      5-min Rain = 0
KWE1 081405Z 01011KT M01/M01 A3031 RMK A01 T10071014  RH  095%=      5-min Rain = 0
KWE1 081406Z 01012KT M01/M01 A3031 RMK A01 T10071014  RH  095%=      5-min Rain = 0
KWE1 081407Z 01013KT M01/M01 A3031 RMK A01 T10071014  RH  095%=      5-min Rain = 0
KWE1 081408Z 01011KT M01/M01 A3031 RMK A01 T10071014  RH  095%=      5-min Rain = 0
KWE1 081409Z 01011KT M01/M01 A3031 RMK A01 T10071014  RH  095%=      5-min Rain = 0
KWE1 081410Z 01010KT M01/M01 A3031 RMK A01 T10071014  RH  095%=      5-min Rain = 0
KWE1 081411Z 01009KT M01/M01 A3031 RMK A01 T10071014  RH  095%=      5-min Rain = 0
KWE1 081412Z 00010KT M01/M01 A3031 RMK A01 T10071014  RH  095%=      5-min Rain = 0
KWE1 081413Z 00010KT M01/M01 A3031 RMK A01 T10071014  RH  095%=      5-min Rain = 0
KWE1 081414Z 01009KT M01/M01 A3031 RMK A01 T10071014  RH  095%=      5-min Rain = 0
KWE1 081415Z 00008KT M01/M01 A3031 RMK A01 T10071014  RH  095%=      5-min Rain = 0
KWE1 081416Z 01010KT M01/M01 A3031 RMK A01 T10071014  RH  095%=      5-min Rain = 0
KWE1 081417Z 01008KT M01/M01 A3031 RMK A01 T10071014  RH  095%=      5-min Rain = 0
KWE1 081418Z 00008KT M01/M01 A3031 RMK A01 T10071014  RH  095%=      5-min Rain = 0
KWE1 081419Z 01009KT M01/M01 A3031 RMK A01 T10071014  RH  095%=      5-min Rain = 0
KWE1 081420Z 00012KT M01/M01 A3031 RMK A01 T10071014  RH  095%=      5-min Rain = 0
KWE1 081421Z 01010KT M01/M01 A3031 RMK A01 T10071014  RH  095%=      5-min Rain = 0
KWE1 081422Z 00012KT M01/M01 A3031 RMK A01 T10071014  RH  095%=      5-min Rain = 0
KWE1 081423Z 01012KT M01/M01 A3031 RMK A01 T10071014  RH  095%=      5-min Rain = 0
KWE1 081424Z 01013KT M01/M01 A3031 RMK A01 T10071014  RH  095%=      5-min Rain = 0
KWE1 081425Z 01011KT M01/M01 A3031 RMK A01 T10071014  RH  095%=      5-min Rain = 0
KWE1 081426Z 01010KT M01/M01 A3031 RMK A01 T10071014  RH  095%=      5-min Rain = 0
KWE1 081427Z 00010KT M01/M01 A3031 RMK A01 T10071014  RH  095%=      5-min Rain = 0
KWE1 081428Z 00011KT M01/M01 A3031 RMK A01 T10071014  RH  095%=      5-min Rain = 0
KWE1 081429Z 01011KT M01/M01 A3031 RMK A01 T10071013  RH  095%=      5-min Rain = 0
KWE1 081430Z 00013KT M01/M01 A3031 RMK A01 T10071014  RH  095%=      5-min Rain = 0
KWE1 081431Z 01011KT M01/M01 A3031 RMK A01 T10071014  RH  095%=      5-min Rain = 0
KWE1 081432Z 01011KT M01/M01 A3031 RMK A01 T10071014  RH  095%=      5-min Rain = 0
KWE1 081433Z 01010KT M01/M01 A3031 RMK A01 T10071014  RH  095%=      5-min Rain = 0
KWE1 081434Z 01011KT M01/M01 A3032 RMK A01 T10071014  RH  095%=      5-min Rain = 0
KWE1 081435Z 01011KT M01/M01 A3032 RMK A01 T10071014  RH  095%=      5-min Rain = 0
KWE1 081436Z 01013KT M01/M01 A3032 RMK A01 T10071014  RH  095%=      5-min Rain = 0
KWE1 081437Z 01012KT M01/M01 A3032 RMK A01 T10071014  RH  095%=      5-min Rain = 0
KWE1 081438Z 01011KT M01/M01 A3032 RMK A01 T10071014  RH  095%=      5-min Rain = 0
KWE1 081439Z 01011KT M01/M01 A3032 RMK A01 T10071013  RH  095%=      5-min Rain = 0
KWE1 081440Z 01012KT M01/M01 A3032 RMK A01 T10071013  RH  095%=      5-min Rain = 0
KWE1 081441Z 01009KT M01/M01 A3032 RMK A01 T10071013  RH  095%=      5-min Rain = 0
KWE1 081442Z 00011KT M01/M01 A3032 RMK A01 T10061013  RH  095%=      5-min Rain = 0
KWE1 081443Z 01011KT M01/M01 A3032 RMK A01 T10061013  RH  095%=      5-min Rain = 0
KWE1 081444Z 01012KT M01/M01 A3032 RMK A01 T10061013  RH  095%=      5-min Rain = 0
KWE1 081445Z 01011KT M01/M01 A3032 RMK A01 T10061013  RH  095%=      5-min Rain = 0
KWE1 081446Z 00010KT M01/M01 A3032 RMK A01 T10061013  RH  095%=      5-min Rain = 0
KWE1 081447Z 01010KT M01/M01 A3032 RMK A01 T10061013  RH  095%=      5-min Rain = 0
KWE1 081448Z 00011KT M01/M01 A3032 RMK A01 T10061013  RH  095%=      5-min Rain = 0
KWE1 081449Z 01013KT M01/M01 A3032 RMK A01 T10061013  RH  095%=      5-min Rain = 0
KWE1 081450Z 01011KT M01/M01 A3032 RMK A01 T10071014  RH  095%=      5-min Rain = 0
KWE1 081451Z 01010KT M01/M01 A3032 RMK A01 T10071014  RH  095%=      5-min Rain = 0
KWE1 081452Z 01009KT M01/M01 A3032 RMK A01 T10071014  RH  095%=      5-min Rain = 0
KWE1 081453Z 01011G17KT M01/M01 A3032 RMK A01 T10071014  RH  095%=      5-min Rain = 0
KWE1 081454Z 01016KT M01/M01 A3032 RMK A01 T10071014  RH  095%=      5-min Rain = 0
KWE1 081455Z 01015KT M01/M01 A3032 RMK A01 T10071013  RH  095%=      5-min Rain = 0
KWE1 081456Z 01013KT M01/M01 A3032 RMK A01 T10071014  RH  095%=      5-min Rain = 0
KWE1 081457Z 01014KT M01/M01 A3032 RMK A01 T10071014  RH  095%=      5-min Rain = 0
KWE1 081458Z 01013KT M01/M01 A3032 RMK A01 T10071013  RH  095%=      5-min Rain = 0
KWE1 081459Z 01010KT M01/M01 A3032 RMK A01 T10071013  RH  095%=      5-min Rain = 0
KWE1 081500Z 01012KT M01/M01 A3032 RMK A01 T10071013  RH  095%=      5-min Rain = 0
KWE1 081501Z 01011KT M01/M01 A3033 RMK A01 T10061013  RH  095%=      5-min Rain = 0
KWE1 081502Z 01010KT M01/M01 A3032 RMK A01 T10071014  RH  095%=      5-min Rain = 0
KWE1 081503Z 01010KT M01/M01 A3033 RMK A01 T10071014  RH  095%=      5-min Rain = 0
KWE1 081504Z 00009KT M01/M01 A3033 RMK A01 T10071014  RH  095%=      5-min Rain = 0
KWE1 081505Z 00010KT M01/M01 A3033 RMK A01 T10071013  RH  095%=      5-min Rain = 0
KWE1 081506Z 36009KT M01/M01 A3033 RMK A01 T10071014  RH  095%=      5-min Rain = 0
KWE1 081507Z 01010KT M01/M01 A3033 RMK A01 T10071014  RH  095%=      5-min Rain = 0
KWE1 081508Z 00011KT M01/M01 A3033 RMK A01 T10071014  RH  095%=      5-min Rain = 0
KWE1 081509Z 01012KT M01/M01 A3033 RMK A01 T10071013  RH  095%=      5-min Rain = 0
KWE1 081510Z 00012KT M01/M01 A3033 RMK A01 T10071014  RH  095%=      5-min Rain = 0
KWE1 081511Z 01011KT M01/M01 A3033 RMK A01 T10071014  RH  095%=      5-min Rain = 0
KWE1 081512Z 01015KT M01/M01 A3033 RMK A01 T10071014  RH  095%=      5-min Rain = 0
KWE1 081513Z 01010KT M01/M01 A3033 RMK A01 T10071014  RH  095%=      5-min Rain = 0
KWE1 081514Z 01011KT M01/M01 A3033 RMK A01 T10071013  RH  095%=      5-min Rain = 0
KWE1 081515Z 02013KT M01/M01 A3033 RMK A01 T10071014  RH  095%=      5-min Rain = 0
KWE1 081516Z 01011KT M01/M01 A3033 RMK A01 T10071014  RH  095%=      5-min Rain = 0
KWE1 081517Z 01012KT M01/M01 A3033 RMK A01 T10071014  RH  095%=      5-min Rain = 0
KWE1 081518Z 01011KT M01/M01 A3033 RMK A01 T10071014  RH  095%=      5-min Rain = 0
KWE1 081519Z 01011KT M01/M01 A3033 RMK A01 T10071014  RH  095%=      5-min Rain = 0
KWE1 081520Z 01012KT M01/M01 A3033 RMK A01 T10071013  RH  095%=      5-min Rain = 0
KWE1 081521Z 00010KT M01/M01 A3033 RMK A01 T10071014  RH  095%=      5-min Rain = 0
KWE1 081522Z 00010KT M01/M01 A3033 RMK A01 T10061013  RH  095%=      5-min Rain = 0
KWE1 081523Z 01011KT M01/M01 A3033 RMK A01 T10071014  RH  095%=      5-min Rain = 0
KWE1 081524Z 00009KT M01/M01 A3033 RMK A01 T10071014  RH  095%=      5-min Rain = 0
KWE1 081525Z 00011KT M01/M01 A3033 RMK A01 T10071013  RH  095%=      5-min Rain = 0
KWE1 081526Z 00010KT M01/M01 A3033 RMK A01 T10071014  RH  095%=      5-min Rain = 0
KWE1 081527Z 00010KT M01/M01 A3033 RMK A01 T10071014  RH  095%=      5-min Rain = 0
KWE1 081528Z 01009KT M01/M01 A3033 RMK A01 T10071013  RH  095%=      5-min Rain = 0
KWE1 081529Z 00010KT M01/M01 A3033 RMK A01 T10071014  RH  095%=      5-min Rain = 0
KWE1 081530Z 35010KT M01/M01 A3034 RMK A01 T10071014  RH  095%=      5-min Rain = 0
KWE1 081531Z 35010KT M01/M01 A3033 RMK A01 T10071013  RH  095%=      5-min Rain = 0
KWE1 081532Z 36008KT M01/M01 A3034 RMK A01 T10071014  RH  095%=      5-min Rain = 0
KWE1 081533Z 36010KT M01/M01 A3034 RMK A01 T10071013  RH  095%=      5-min Rain = 0
KWE1 081534Z 36011KT M01/M01 A3034 RMK A01 T10071014  RH  095%=      5-min Rain = 0
KWE1 081535Z 00010KT M01/M01 A3034 RMK A01 T10071014  RH  095%=      5-min Rain = 0
KWE1 081536Z 35010KT M01/M01 A3034 RMK A01 T10071014  RH  095%=      5-min Rain = 0
KWE1 081537Z 36010KT M01/M01 A3034 RMK A01 T10071013  RH  095%=      5-min Rain = 0
KWE1 081538Z 35010KT M01/M01 A3034 RMK A01 T10071014  RH  095%=      5-min Rain = 0
KWE1 081539Z 36009KT M01/M01 A3034 RMK A01 T10071014  RH  095%=      5-min Rain = 0
KWE1 081540Z 36011KT M01/M01 A3034 RMK A01 T10071014  RH  095%=      5-min Rain = 0
KWE1 081541Z 35010KT M01/M01 A3034 RMK A01 T10071013  RH  095%=      5-min Rain = 0
KWE1 081542Z 35011KT M01/M01 A3034 RMK A01 T10071014  RH  095%=      5-min Rain = 0
KWE1 081543Z 36011KT M01/M01 A3034 RMK A01 T10071014  RH  095%=      5-min Rain = 0
KWE1 081544Z 36012KT M01/M01 A3034 RMK A01 T10071014  RH  095%=      5-min Rain = 0
KWE1 081545Z 35012KT M01/M01 A3034 RMK A01 T10071014  RH  095%=      5-min Rain = 0
KWE1 081546Z 35013KT M01/M01 A3034 RMK A01 T10071014  RH  095%=      5-min Rain = 0
KWE1 081547Z 36014KT M01/M01 A3034 RMK A01 T10071014  RH  095%=      5-min Rain = 0
KWE1 081548Z 36011KT M01/M01 A3034 RMK A01 T10071014  RH  095%=      5-min Rain = 0
KWE1 081549Z 00014KT M01/M02 A3034 RMK A01 T10081015  RH  095%=      5-min Rain = 0
KWE1 081550Z 00014KT M01/M02 A3034 RMK A01 T10081015  RH  095%=      5-min Rain = 0
KWE1 081551Z 01013KT M01/M02 A3034 RMK A01 T10081015  RH  095%=      5-min Rain = 0
KWE1 081552Z 01014KT M01/M02 A3034 RMK A01 T10081015  RH  095%=      5-min Rain = 0
KWE1 081553Z 01012KT M01/M02 A3034 RMK A01 T10081015  RH  095%=      5-min Rain = 0
KWE1 081554Z 01012KT M01/M02 A3034 RMK A01 T10081015  RH  095%=      5-min Rain = 0
KWE1 081555Z 00010KT M01/M02 A3034 RMK A01 T10081015  RH  095%=      5-min Rain = 0
KWE1 081556Z 01010KT M01/M02 A3034 RMK A01 T10081015  RH  095%=      5-min Rain = 0
KWE1 081557Z 00010KT M01/M02 A3034 RMK A01 T10081015  RH  095%=      5-min Rain = 0
KWE1 081558Z 00009KT M01/M01 A3034 RMK A01 T10081014  RH  095%=      5-min Rain = 0
KWE1 081559Z 36009KT M01/M01 A3034 RMK A01 T10081014  RH  095%=      5-min Rain = 0
KWE1 081600Z 36010KT M01/M01 A3034 RMK A01 T10071014  RH  095%=      5-min Rain = 0
KWE1 081601Z 35010KT M01/M01 A3034 RMK A01 T10071014  RH  095%=      5-min Rain = 0
KWE1 081602Z 35011KT M01/M01 A3034 RMK A01 T10071014  RH  095%=      5-min Rain = 0
KWE1 081603Z 36010KT M01/M01 A3034 RMK A01 T10071014  RH  095%=      5-min Rain = 0
KWE1 081604Z 35011KT M01/M01 A3034 RMK A01 T10071014  RH  095%=      5-min Rain = 0
KWE1 081605Z 35013KT M01/M01 A3034 RMK A01 T10071014  RH  095%=      5-min Rain = 0
KWE1 081606Z 35011KT M01/M01 A3034 RMK A01 T10071014  RH  095%=      5-min Rain = 0
KWE1 081607Z 35009KT M01/M01 A3034 RMK A01 T10071014  RH  095%=      5-min Rain = 0
KWE1 081608Z 35010KT M01/M01 A3034 RMK A01 T10071014  RH  095%=      5-min Rain = 0
KWE1 081609Z 34010KT M01/M01 A3034 RMK A01 T10071014  RH  095%=      5-min Rain = 0
KWE1 081610Z 34009KT M01/M01 A3034 RMK A01 T10071014  RH  095%=      5-min Rain = 0
KWE1 081611Z 34010KT M01/M01 A3034 RMK A01 T10071014  RH  095%=      5-min Rain = 0
KWE1 081612Z 34010KT M01/M01 A3034 RMK A01 T10071014  RH  095%=      5-min Rain = 0
KWE1 081613Z 34010KT M01/M01 A3034 RMK A01 T10071014  RH  095%=      5-min Rain = 0
KWE1 081614Z 34011KT M01/M01 A3034 RMK A01 T10071014  RH  095%=      5-min Rain = 0
KWE1 081615Z 34010KT M01/M01 A3034 RMK A01 T10071014  RH  095%=      5-min Rain = 0
KWE1 081616Z 34010KT M01/M01 A3034 RMK A01 T10071014  RH  095%=      5-min Rain = 0
KWE1 081617Z 34010KT M01/M01 A3034 RMK A01 T10071014  RH  095%=      5-min Rain = 0
KWE1 081618Z 34010KT M01/M01 A3034 RMK A01 T10071014  RH  095%=      5-min Rain = 0
KWE1 081619Z 35009KT M01/M01 A3034 RMK A01 T10071014  RH  095%=      5-min Rain = 0
KWE1 081620Z 35010KT M01/M01 A3034 RMK A01 T10071014  RH  095%=      5-min Rain = 0
KWE1 081621Z 35011KT M01/M01 A3034 RMK A01 T10071014  RH  095%=      5-min Rain = 0
KWE1 081622Z 35009KT M01/M01 A3034 RMK A01 T10071014  RH  095%=      5-min Rain = 0
KWE1 081623Z 34010KT M01/M01 A3034 RMK A01 T10071014  RH  095%=      5-min Rain = 0
KWE1 081624Z 34011KT M01/M01 A3034 RMK A01 T10071014  RH  095%=      5-min Rain = 0
KWE1 081625Z 35010KT M01/M01 A3034 RMK A01 T10071014  RH  095%=      5-min Rain = 0
KWE1 081626Z 35011KT M01/M01 A3034 RMK A01 T10071014  RH  095%=      5-min Rain = 0
KWE1 081627Z 35009KT M01/M01 A3034 RMK A01 T10071014  RH  095%=      5-min Rain = 0
KWE1 081628Z 35009KT M01/M01 A3034 RMK A01 T10071014  RH  095%=      5-min Rain = 0
KWE1 081629Z 35010KT M01/M01 A3034 RMK A01 T10071014  RH  095%=      5-min Rain = 0
KWE1 081630Z 35011KT M01/M01 A3034 RMK A01 T10071014  RH  095%=      5-min Rain = 0
KWE1 081631Z 35009KT M01/M01 A3035 RMK A01 T10071014  RH  095%=      5-min Rain = 0
KWE1 081632Z 35008KT M01/M01 A3034 RMK A01 T10071014  RH  095%=      5-min Rain = 0
KWE1 081633Z 34010KT M01/M01 A3034 RMK A01 T10071014  RH  095%=      5-min Rain = 0
KWE1 081634Z 35009KT M01/M01 A3034 RMK A01 T10071014  RH  095%=      5-min Rain = 0
KWE1 081635Z 35012KT M01/M01 A3035 RMK A01 T10071014  RH  095%=      5-min Rain = 0
KWE1 081636Z 35011KT M01/M02 A3035 RMK A01 T10071015  RH  095%=      5-min Rain = 0
KWE1 081637Z 35011KT M01/M02 A3035 RMK A01 T10081015  RH  095%=      5-min Rain = 0
KWE1 081638Z 35010KT M01/M02 A3035 RMK A01 T10081015  RH  095%=      5-min Rain = 0
KWE1 081639Z 35009KT M01/M02 A3035 RMK A01 T10071015  RH  095%=      5-min Rain = 0
KWE1 081640Z 36008KT M01/M01 A3035 RMK A01 T10071014  RH  095%=      5-min Rain = 0
KWE1 081641Z 35009KT M01/M01 A3034 RMK A01 T10071014  RH  095%=      5-min Rain = 0
KWE1 081642Z 35009KT M01/M01 A3034 RMK A01 T10071014  RH  095%=      5-min Rain = 0
KWE1 081643Z 35009KT M01/M01 A3034 RMK A01 T10071014  RH  095%=      5-min Rain = 0
KWE1 081644Z 35009KT M01/M01 A3034 RMK A01 T10071014  RH  095%=      5-min Rain = 0
KWE1 081645Z 34010KT M01/M01 A3034 RMK A01 T10071014  RH  095%=      5-min Rain = 0
KWE1 081646Z 34010KT M01/M01 A3034 RMK A01 T10071014  RH  095%=      5-min Rain = 0
KWE1 081647Z 34011KT M01/M01 A3034 RMK A01 T10071014  RH  095%=      5-min Rain = 0
KWE1 081648Z 34010KT M01/M01 A3034 RMK A01 T10071014  RH  095%=      5-min Rain = 0
KWE1 081649Z 34010KT M01/M01 A3034 RMK A01 T10071014  RH  095%=      5-min Rain = 0
KWE1 081650Z 35011KT M01/M01 A3034 RMK A01 T10071014  RH  095%=      5-min Rain = 0
KWE1 081651Z 34009KT M01/M01 A3034 RMK A01 T10071014  RH  095%=      5-min Rain = 0
KWE1 081652Z 34011KT M01/M01 A3034 RMK A01 T10071014  RH  095%=      5-min Rain = 0
KWE1 081653Z 34010KT M01/M01 A3034 RMK A01 T10071014  RH  095%=      5-min Rain = 0
KWE1 081654Z 34012KT M01/M01 A3034 RMK A01 T10071014  RH  095%=      5-min Rain = 0
KWE1 081655Z 35012KT M01/M01 A3034 RMK A01 T10071014  RH  095%=      5-min Rain = 0
KWE1 081656Z 34013KT M01/M01 A3034 RMK A01 T10071014  RH  095%=      5-min Rain = 0
KWE1 081657Z 34012KT M01/M02 A3034 RMK A01 T10071015  RH  095%=      5-min Rain = 0
KWE1 081658Z 34012KT M01/M02 A3034 RMK A01 T10071015  RH  095%=      5-min Rain = 0
KWE1 081659Z 35012KT M01/M02 A3034 RMK A01 T10071015  RH  095%=      5-min Rain = 0
KWE1 081700Z 35012KT M01/M02 A3034 RMK A01 T10071015  RH  095%=      5-min Rain = 0
KWE1 081701Z 35010KT M01/M02 A3034 RMK A01 T10071015  RH  095%=      5-min Rain = 0
KWE1 081702Z 34009KT M01/M01 A3034 RMK A01 T10071014  RH  095%=      5-min Rain = 0
KWE1 081703Z 35010KT M01/M01 A3034 RMK A01 T10061014  RH  095%=      5-min Rain = 0
KWE1 081704Z 35011KT M01/M01 A3034 RMK A01 T10061014  RH  095%=      5-min Rain = 0
KWE1 081705Z 34012KT M01/M01 A3034 RMK A01 T10061014  RH  095%=      5-min Rain = 0
KWE1 081706Z 34012KT M01/M01 A3034 RMK A01 T10061014  RH  094%=      5-min Rain = 0
KWE1 081707Z 34013KT M01/M01 A3034 RMK A01 T10061014  RH  094%=      5-min Rain = 0
KWE1 081708Z 34010KT M01/M02 A3034 RMK A01 T10071015  RH  094%=      5-min Rain = 0
KWE1 081709Z 34011KT M01/M02 A3034 RMK A01 T10071015  RH  094%=      5-min Rain = 0
KWE1 081710Z 35012KT M01/M02 A3034 RMK A01 T10071015  RH  094%=      5-min Rain = 0
KWE1 081711Z 34013KT M01/M01 A3034 RMK A01 T10061014  RH  094%=      5-min Rain = 0
KWE1 081712Z 34014KT M01/M01 A3034 RMK A01 T10061014  RH  094%=      5-min Rain = 0
KWE1 081713Z 34012KT M01/M02 A3034 RMK A01 T10071015  RH  094%=      5-min Rain = 0
KWE1 081714Z 34012KT M01/M02 A3034 RMK A01 T10061015  RH  094%=      5-min Rain = 0
KWE1 081715Z 34012KT M01/M02 A3034 RMK A01 T10071015  RH  094%=      5-min Rain = 0
KWE1 081716Z 34010KT M01/M02 A3034 RMK A01 T10071015  RH  094%=      5-min Rain = 0
KWE1 081717Z 34012KT M01/M02 A3034 RMK A01 T10071015  RH  094%=      5-min Rain = 0
KWE1 081718Z 34011KT M01/M02 A3034 RMK A01 T10071015  RH  094%=      5-min Rain = 0
KWE1 081719Z 34010KT M01/M02 A3034 RMK A01 T10071015  RH  094%=      5-min Rain = 0
KWE1 081720Z 34011KT M01/M02 A3034 RMK A01 T10071015  RH  094%=      5-min Rain = 0
KWE1 081721Z 34012KT M01/M02 A3034 RMK A01 T10071015  RH  094%=      5-min Rain = 0
KWE1 081722Z 34012KT M01/M02 A3034 RMK A01 T10071015  RH  094%=      5-min Rain = 0
KWE1 081723Z 34011KT M01/M02 A3034 RMK A01 T10071015  RH  094%=      5-min Rain = 0
KWE1 081724Z 34009KT M01/M02 A3034 RMK A01 T10071015  RH  094%=      5-min Rain = 0
KWE1 081725Z 34010KT M01/M01 A3034 RMK A01 T10061014  RH  094%=      5-min Rain = 0
KWE1 081726Z 34011KT M01/M01 A3034 RMK A01 T10061014  RH  094%=      5-min Rain = 0
KWE1 081727Z 35011KT M01/M02 A3034 RMK A01 T10061015  RH  094%=      5-min Rain = 0
KWE1 081728Z 34010KT M01/M02 A3034 RMK A01 T10061015  RH  094%=      5-min Rain = 0
KWE1 081729Z 34010KT M01/M02 A3034 RMK A01 T10061015  RH  094%=      5-min Rain = 0
KWE1 081730Z 34012KT M01/M02 A3034 RMK A01 T10061015  RH  094%=      5-min Rain = 0
KWE1 081731Z 34012KT M01/M02 A3034 RMK A01 T10061015  RH  094%=      5-min Rain = 0
KWE1 081732Z 34012KT M01/M02 A3034 RMK A01 T10061015  RH  094%=      5-min Rain = 0
KWE1 081733Z 34011KT M01/M02 A3034 RMK A01 T10061015  RH  094%=      5-min Rain = 0
KWE1 081734Z 34013KT M01/M02 A3034 RMK A01 T10061015  RH  094%=      5-min Rain = 0
KWE1 081735Z 34012KT M01/M02 A3034 RMK A01 T10061015  RH  094%=      5-min Rain = 0
KWE1 081736Z 34011KT M01/M02 A3034 RMK A01 T10061015  RH  094%=      5-min Rain = 0
KWE1 081737Z 35013KT M01/M02 A3034 RMK A01 T10061015  RH  094%=      5-min Rain = 0
KWE1 081738Z 34014KT M01/M02 A3034 RMK A01 T10061015  RH  094%=      5-min Rain = 0
KWE1 081739Z 35014KT M01/M02 A3034 RMK A01 T10071015  RH  094%=      5-min Rain = 0
KWE1 081740Z 34015KT M01/M02 A3034 RMK A01 T10071015  RH  094%=      5-min Rain = 0
KWE1 081741Z 34015KT M01/M02 A3034 RMK A01 T10071015  RH  094%=      5-min Rain = 0
KWE1 081742Z 34013KT M01/M02 A3034 RMK A01 T10071015  RH  094%=      5-min Rain = 0
KWE1 081743Z 34014KT M01/M02 A3034 RMK A01 T10071015  RH  094%=      5-min Rain = 0
KWE1 081744Z 35013KT M01/M02 A3034 RMK A01 T10071015  RH  094%=      5-min Rain = 0
KWE1 081745Z 35013KT M01/M02 A3033 RMK A01 T10071015  RH  094%=      5-min Rain = 0
KWE1 081746Z 34011KT M01/M02 A3033 RMK A01 T10071016  RH  094%=      5-min Rain = 0
KWE1 081747Z 35012KT M01/M02 A3033 RMK A01 T10061015  RH  094%=      5-min Rain = 0
KWE1 081748Z 35011KT M01/M02 A3033 RMK A01 T10061015  RH  094%=      5-min Rain = 0
KWE1 081749Z 35012KT M01/M02 A3033 RMK A01 T10061015  RH  094%=      5-min Rain = 0
KWE1 081750Z 35013KT M01/M02 A3033 RMK A01 T10061015  RH  094%=      5-min Rain = 0
KWE1 081751Z 35014KT M01/M02 A3033 RMK A01 T10061015  RH  094%=      5-min Rain = 0
KWE1 081752Z 34012KT M01/M02 A3033 RMK A01 T10061015  RH  094%=      5-min Rain = 0
KWE1 081753Z 34011KT M01/M02 A3033 RMK A01 T10061015  RH  094%=      5-min Rain = 0
KWE1 081754Z 35014KT M01/M02 A3033 RMK A01 T10061015  RH  094%=      5-min Rain = 0
KWE1 081755Z 34012KT M01/M02 A3033 RMK A01 T10061015  RH  094%=      5-min Rain = 0
KWE1 081756Z 34012KT M01/M02 A3033 RMK A01 T10061015  RH  094%=      5-min Rain = 0
KWE1 081757Z 34012KT M01/M02 A3033 RMK A01 T10061015  RH  094%=      5-min Rain = 0
KWE1 081758Z 34014KT M01/M02 A3033 RMK A01 T10061015  RH  094%=      5-min Rain = 0
KWE1 081759Z 34015KT M01/M02 A3033 RMK A01 T10061015  RH  093%=      5-min Rain = 0
KWE1 081800Z 34014KT M01/M02 A3033 RMK A01 T10061016  RH  093%=      5-min Rain = 0
KWE1 081801Z 34012KT M01/M02 A3033 RMK A01 T10071016  RH  093%=      5-min Rain = 0
KWE1 081802Z 34012KT M01/M02 A3033 RMK A01 T10061015  RH  093%=      5-min Rain = 0
KWE1 081803Z 35012KT M01/M02 A3033 RMK A01 T10061016  RH  093%=      5-min Rain = 0
KWE1 081804Z 34013KT M01/M02 A3033 RMK A01 T10061016  RH  093%=      5-min Rain = 0
KWE1 081805Z 34013KT M01/M02 A3033 RMK A01 T10061016  RH  093%=      5-min Rain = 0
KWE1 081806Z 34013KT M01/M02 A3033 RMK A01 T10061016  RH  093%=      5-min Rain = 0
KWE1 081807Z 34015KT M01/M02 A3033 RMK A01 T10061016  RH  093%=      5-min Rain = 0
KWE1 081808Z 34014KT M01/M02 A3033 RMK A01 T10071016  RH  093%=      5-min Rain = 0
KWE1 081809Z 34014KT M01/M02 A3033 RMK A01 T10071016  RH  093%=      5-min Rain = 0
KWE1 081810Z 34015KT M01/M02 A3033 RMK A01 T10071016  RH  093%=      5-min Rain = 0
KWE1 081811Z 34014KT M01/M02 A3033 RMK A01 T10061016  RH  093%=      5-min Rain = 0
KWE1 081812Z 34013KT M01/M02 A3033 RMK A01 T10071016  RH  093%=      5-min Rain = 0
KWE1 081813Z 34012KT M01/M02 A3033 RMK A01 T10071016  RH  093%=      5-min Rain = 0.01
KWE1 081814Z 34013KT M01/M02 A3032 RMK A01 T10061016  RH  093%=      5-min Rain = 0
KWE1 081815Z 34015KT M01/M02 A3032 RMK A01 T10061016  RH  093%=      5-min Rain = 0
KWE1 081816Z 34014KT M01/M02 A3032 RMK A01 T10061016  RH  093%=      5-min Rain = 0
KWE1 081817Z 35011KT M01/M02 A3032 RMK A01 T10071017  RH  093%=      5-min Rain = 0
KWE1 081818Z 35012KT M01/M02 A3032 RMK A01 T10071016  RH  093%=      5-min Rain = 0.01
KWE1 081819Z 35013KT M01/M02 A3032 RMK A01 T10071017  RH  093%=      5-min Rain = 0
KWE1 081820Z 35013KT M01/M02 A3032 RMK A01 T10071016  RH  093%=      5-min Rain = 0
KWE1 081821Z 35011KT M01/M02 A3032 RMK A01 T10071016  RH  093%=      5-min Rain = 0
KWE1 081822Z 35011KT M01/M02 A3032 RMK A01 T10071016  RH  093%=      5-min Rain = 0.01
KWE1 081823Z 35013KT M01/M02 A3032 RMK A01 T10071016  RH  093%=      5-min Rain = 0
KWE1 081824Z 35014KT M01/M02 A3032 RMK A01 T10071016  RH  093%=      5-min Rain = 0
KWE1 081825Z 35012KT M01/M02 A3032 RMK A01 T10071016  RH  093%=      5-min Rain = 0
KWE1 081826Z 35013KT M01/M02 A3032 RMK A01 T10061016  RH  093%=      5-min Rain = 0.01
KWE1 081827Z 35012KT M01/M02 A3032 RMK A01 T10061016  RH  093%=      5-min Rain = 0
KWE1 081828Z 34013KT M01/M02 A3032 RMK A01 T10071016  RH  093%=      5-min Rain = 0
KWE1 081829Z 34012KT M01/M02 A3032 RMK A01 T10061016  RH  093%=      5-min Rain = 0.01
KWE1 081830Z 34012KT M01/M02 A3032 RMK A01 T10061016  RH  093%=      5-min Rain = 0
KWE1 081831Z 34010KT M01/M02 A3032 RMK A01 T10061016  RH  093%=      5-min Rain = 0
KWE1 081832Z 34012KT M01/M02 A3032 RMK A01 T10061015  RH  093%=      5-min Rain = 0.01
KWE1 081833Z 34012KT M01/M02 A3031 RMK A01 T10061015  RH  093%=      5-min Rain = 0
KWE1 081834Z 34012KT M01/M02 A3031 RMK A01 T10061016  RH  093%=      5-min Rain = 0
KWE1 081835Z 34011KT M01/M02 A3031 RMK A01 T10061015  RH  093%=      5-min Rain = 0
KWE1 081836Z 33013KT M01/M02 A3031 RMK A01 T10051015  RH  093%=      5-min Rain = 0.01
KWE1 081837Z 34012KT M01/M02 A3031 RMK A01 T10051015  RH  093%=      5-min Rain = 0
KWE1 081838Z 34011KT M01/M02 A3031 RMK A01 T10051015  RH  093%=      5-min Rain = 0
KWE1 081839Z 34011KT M01/M02 A3031 RMK A01 T10051015  RH  093%=      5-min Rain = 0
KWE1 081840Z 34013KT M01/M02 A3031 RMK A01 T10051015  RH  093%=      5-min Rain = 0.01
KWE1 081841Z 34011KT M01/M02 A3031 RMK A01 T10051015  RH  093%=      5-min Rain = 0
KWE1 081842Z 34013KT M01/M02 A3031 RMK A01 T10051015  RH  093%=      5-min Rain = 0
KWE1 081843Z 34012KT M01/M02 A3031 RMK A01 T10051015  RH  093%=      5-min Rain = 0
KWE1 081844Z 34012KT M01/M02 A3031 RMK A01 T10051015  RH  093%=      5-min Rain = 0
KWE1 081845Z 34015KT M01/M02 A3031 RMK A01 T10051015  RH  093%=      5-min Rain = 0.01
KWE1 081846Z 34013KT M01/M02 A3031 RMK A01 T10051015  RH  093%=      5-min Rain = 0
KWE1 081847Z 34014KT M01/M02 A3031 RMK A01 T10051015  RH  093%=      5-min Rain = 0
KWE1 081848Z 34015KT M01/M02 A3031 RMK A01 T10051015  RH  093%=      5-min Rain = 0
KWE1 081849Z 35016KT M01/M02 A3031 RMK A01 T10051016  RH  093%=      5-min Rain = 0.01
KWE1 081850Z 35013KT M01/M02 A3031 RMK A01 T10061016  RH  093%=      5-min Rain = 0
KWE1 081851Z 35013KT M01/M02 A3031 RMK A01 T10051016  RH  093%=      5-min Rain = 0
KWE1 081852Z 35013KT M01/M02 A3031 RMK A01 T10051016  RH  093%=      5-min Rain = 0
KWE1 081853Z 35014KT M01/M02 A3031 RMK A01 T10051016  RH  093%=      5-min Rain = 0
KWE1 081854Z 35013KT M01/M02 A3031 RMK A01 T10051016  RH  093%=      5-min Rain = 0.01
KWE1 081855Z 34013KT M01/M02 A3031 RMK A01 T10051016  RH  093%=      5-min Rain = 0
KWE1 081856Z 34013KT M01/M02 A3031 RMK A01 T10051016  RH  093%=      5-min Rain = 0
KWE1 081857Z 34010KT M01/M02 A3031 RMK A01 T10051016  RH  093%=      5-min Rain = 0
KWE1 081858Z 34014KT M00/M02 A3031 RMK A01 T10041015  RH  093%=      5-min Rain = 0.01
KWE1 081859Z 35014KT M01/M02 A303 RMK A01 T10051015  RH  093%=      5-min Rain = 0
KWE1 081900Z 34012KT M01/M02 A3031 RMK A01 T10051015  RH  093%=      5-min Rain = 0
KWE1 081901Z 35013KT M01/M02 A303 RMK A01 T10051015  RH  093%=      5-min Rain = 0
KWE1 081902Z 35014KT M01/M02 A3031 RMK A01 T10051015  RH  093%=      5-min Rain = 0.01
KWE1 081903Z 35014KT M00/M02 A303 RMK A01 T10041015  RH  092%=      5-min Rain = 0
KWE1 081904Z 34011KT M01/M02 A303 RMK A01 T10051015  RH  092%=      5-min Rain = 0
KWE1 081905Z 34013KT M00/M02 A303 RMK A01 T10041015  RH  092%=      5-min Rain = 0
KWE1 081906Z 34012KT M00/M02 A303 RMK A01 T10041015  RH  092%=      5-min Rain = 0
KWE1 081907Z 34011KT M00/M02 A303 RMK A01 T10041015  RH  092%=      5-min Rain = 0.01
KWE1 081908Z 33009KT M00/M02 A303 RMK A01 T10041015  RH  092%=      5-min Rain = 0
KWE1 081909Z 34010KT M00/M01 A303 RMK A01 T10031014  RH  093%=      5-min Rain = 0
KWE1 081910Z 34011KT M00/M01 A303 RMK A01 T10041014  RH  093%=      5-min Rain = 0
KWE1 081911Z 34011KT M00/M01 A303 RMK A01 T10031014  RH  093%=      5-min Rain = 0
KWE1 081912Z 33011KT M00/M01 A303 RMK A01 T10031014  RH  092%=      5-min Rain = 0
KWE1 081913Z 34011KT M00/M01 A303 RMK A01 T10031014  RH  092%=      5-min Rain = 0.01
KWE1 081914Z 33010KT M00/M01 A303 RMK A01 T10031014  RH  092%=      5-min Rain = 0
KWE1 081915Z 34011KT M00/M01 A303 RMK A01 T10031014  RH  092%=      5-min Rain = 0
KWE1 081916Z 34011KT M00/M01 A303 RMK A01 T10031014  RH  092%=      5-min Rain = 0
KWE1 081917Z 34012KT M00/M01 A303 RMK A01 T10031014  RH  092%=      5-min Rain = 0.01
KWE1 081918Z 34012KT M00/M01 A303 RMK A01 T10031014  RH  092%=      5-min Rain = 0
KWE1 081919Z 34014KT M00/M01 A303 RMK A01 T10031014  RH  092%=      5-min Rain = 0
KWE1 081920Z 34014KT M00/M01 A303 RMK A01 T10031014  RH  092%=      5-min Rain = 0.01
KWE1 081921Z 34013KT M00/M01 A303 RMK A01 T10031014  RH  092%=      5-min Rain = 0
KWE1 081922Z 34011KT M00/M01 A303 RMK A01 T10031014  RH  092%=      5-min Rain = 0
KWE1 081923Z 34013KT M00/M02 A303 RMK A01 T10041015  RH  092%=      5-min Rain = 0
KWE1 081924Z 35013KT M00/M02 A303 RMK A01 T10041015  RH  092%=      5-min Rain = 0.01
KWE1 081925Z 35012KT M00/M02 A303 RMK A01 T10041015  RH  092%=      5-min Rain = 0
KWE1 081926Z 35012KT M00/M02 A303 RMK A01 T10041015  RH  092%=      5-min Rain = 0
KWE1 081927Z 35014KT M00/M02 A303 RMK A01 T10041015  RH  092%=      5-min Rain = 0
KWE1 081928Z 35014KT M00/M02 A303 RMK A01 T10041016  RH  092%=      5-min Rain = 0.01
KWE1 081929Z 35012KT M00/M02 A303 RMK A01 T10041016  RH  092%=      5-min Rain = 0
KWE1 081930Z 34011KT M01/M02 A303 RMK A01 T10051016  RH  092%=      5-min Rain = 0
KWE1 081931Z 34013KT M00/M02 A303 RMK A01 T10041016  RH  092%=      5-min Rain = 0.01
KWE1 081932Z 34011KT M00/M02 A303 RMK A01 T10041016  RH  092%=      5-min Rain = 0
KWE1 081933Z 35014KT M00/M02 A303 RMK A01 T10041016  RH  092%=      5-min Rain = 0
KWE1 081934Z 34014KT M01/M02 A303 RMK A01 T10051016  RH  092%=      5-min Rain = 0
KWE1 081935Z 35015KT M01/M02 A3029 RMK A01 T10051016  RH  092%=      5-min Rain = 0
KWE1 081936Z 35014KT M01/M02 A3029 RMK A01 T10051016  RH  092%=      5-min Rain = 0
KWE1 081937Z 35013KT M00/M02 A3029 RMK A01 T10041016  RH  092%=      5-min Rain = 0.01
KWE1 081938Z 35011KT M00/M02 A303 RMK A01 T10041016  RH  092%=      5-min Rain = 0
KWE1 081939Z 34012KT M00/M02 A303 RMK A01 T10041016  RH  092%=      5-min Rain = 0
KWE1 081940Z 34012KT M00/M02 A303 RMK A01 T10041015  RH  092%=      5-min Rain = 0.01
KWE1 081941Z 34013KT M00/M02 A303 RMK A01 T10041015  RH  092%=      5-min Rain = 0
KWE1 081942Z 35013KT M00/M02 A303 RMK A01 T10041016  RH  092%=      5-min Rain = 0
KWE1 081943Z 34011KT M00/M02 A303 RMK A01 T10041016  RH  092%=      5-min Rain = 0.01
KWE1 081944Z 34012KT M00/M02 A303 RMK A01 T10041016  RH  092%=      5-min Rain = 0
KWE1 081945Z 34015KT M00/M02 A303 RMK A01 T10041016  RH  092%=      5-min Rain = 0
KWE1 081946Z 35013KT M00/M02 A303 RMK A01 T10041016  RH  092%=      5-min Rain = 0
KWE1 081947Z 35013KT M00/M02 A303 RMK A01 T10041017  RH  092%=      5-min Rain = 0.01
KWE1 081948Z 34012KT M00/M02 A303 RMK A01 T10041016  RH  092%=      5-min Rain = 0
KWE1 081949Z 34012KT M00/M02 A303 RMK A01 T10041016  RH  092%=      5-min Rain = 0
KWE1 081950Z 34012KT M00/M02 A303 RMK A01 T10041016  RH  092%=      5-min Rain = 0
KWE1 081951Z 34013KT M00/M02 A3029 RMK A01 T10041016  RH  092%=      5-min Rain = 0
KWE1 081952Z 35012KT M00/M02 A3029 RMK A01 T10041016  RH  092%=      5-min Rain = 0.01
KWE1 081953Z 34011KT M00/M02 A3029 RMK A01 T10041016  RH  092%=      5-min Rain = 0
KWE1 081954Z 34010KT M00/M02 A3029 RMK A01 T10041016  RH  092%=      5-min Rain = 0
KWE1 081955Z 33012KT M00/M02 A3029 RMK A01 T10041016  RH  092%=      5-min Rain = 0
KWE1 081956Z 34010KT M00/M02 A3029 RMK A01 T10041016  RH  092%=      5-min Rain = 0
KWE1 081957Z 33009KT M00/M02 A3029 RMK A01 T10041016  RH  092%=      5-min Rain = 0.01
KWE1 081958Z 33007KT M00/M02 A3029 RMK A01 T10041016  RH  092%=      5-min Rain = 0
KWE1 081959Z 33008G13KT M00/M02 A3029 RMK A01 T10031015  RH  092%=      5-min Rain = 0
KWE1 082000Z 33012KT M00/M02 A3029 RMK A01 T10031015  RH  092%=      5-min Rain = 0
KWE1 082001Z 34010KT M00/M02 A3029 RMK A01 T10031015  RH  091%=      5-min Rain = 0
KWE1 082002Z 34012KT M00/M02 A3029 RMK A01 T10031016  RH  091%=      5-min Rain = 0.01
KWE1 082003Z 34011KT M00/M02 A3029 RMK A01 T10031016  RH  091%=      5-min Rain = 0
KWE1 082004Z 35013KT M00/M02 A3029 RMK A01 T10031016  RH  091%=      5-min Rain = 0
KWE1 082005Z 33011KT M00/M02 A3029 RMK A01 T10031016  RH  091%=      5-min Rain = 0
KWE1 082006Z 34011KT M00/M02 A3029 RMK A01 T10031016  RH  091%=      5-min Rain = 0.01
KWE1 082007Z 34012KT M00/M02 A3029 RMK A01 T10031016  RH  091%=      5-min Rain = 0
KWE1 082008Z 34012KT M00/M02 A3029 RMK A01 T10031017  RH  091%=      5-min Rain = 0
KWE1 082009Z 34010KT M00/M02 A3029 RMK A01 T10031017  RH  090%=      5-min Rain = 0
KWE1 082010Z 33008KT M00/M02 A3029 RMK A01 T10031017  RH  090%=      5-min Rain = 0.01
KWE1 082011Z 34008KT M00/M02 A3029 RMK A01 T10031017  RH  090%=      5-min Rain = 0
KWE1 082012Z 34009KT M00/M02 A3029 RMK A01 T10021016  RH  091%=      5-min Rain = 0
KWE1 082013Z 34009KT M00/M02 A3029 RMK A01 T10021016  RH  091%=      5-min Rain = 0
KWE1 082014Z 34010KT M00/M02 A3029 RMK A01 T10021016  RH  091%=      5-min Rain = 0.01
KWE1 082015Z 34012KT M00/M02 A3029 RMK A01 T10021016  RH  090%=      5-min Rain = 0
KWE1 082016Z 34010KT M00/M02 A3029 RMK A01 T10021016  RH  090%=      5-min Rain = 0
KWE1 082017Z 34008KT M00/M02 A3029 RMK A01 T10021016  RH  090%=      5-min Rain = 0.01
KWE1 082018Z 34009KT M00/M02 A3029 RMK A01 T10011015  RH  090%=      5-min Rain = 0
KWE1 082019Z 34010KT M00/M02 A3029 RMK A01 T10011015  RH  090%=      5-min Rain = 0.01
KWE1 082020Z 34011KT M00/M02 A3029 RMK A01 T10011015  RH  090%=      5-min Rain = 0
KWE1 082021Z 34011KT M00/M02 A3029 RMK A01 T10011016  RH  090%=      5-min Rain = 0
KWE1 082022Z 34011KT M00/M02 A3029 RMK A01 T10011016  RH  089%=      5-min Rain = 0.01
KWE1 082023Z 34009KT M00/M02 A3029 RMK A01 T10011016  RH  089%=      5-min Rain = 0
KWE1 082024Z 34009KT 00/02 A3029 RMK A01 T00-00-16  RH  089%=      5-min Rain = 0.01
KWE1 082025Z 34010KT 00/02 A3029 RMK A01 T00-00-16  RH  089%=      5-min Rain = 0
KWE1 082026Z 34011KT 00/02 A3029 RMK A01 T00000-15  RH  089%=      5-min Rain = 0
KWE1 082027Z 34010KT 00/02 A3029 RMK A01 T00000-15  RH  089%=      5-min Rain = 0.01
KWE1 082028Z 34009KT 00/02 A3029 RMK A01 T00000-16  RH  089%=      5-min Rain = 0
KWE1 082029Z 34011KT 00/02 A3029 RMK A01 T00-00-16  RH  089%=      5-min Rain = 0
KWE1 082030Z 33012KT 00/02 A3029 RMK A01 T00-00-16  RH  089%=      5-min Rain = 0.01
KWE1 082031Z 34011KT 00/02 A3029 RMK A01 T00000-17  RH  089%=      5-min Rain = 0
KWE1 082032Z 34009KT 00/02 A3029 RMK A01 T00000-16  RH  089%=      5-min Rain = 0
KWE1 082033Z 34010KT 00/M02 A3029 RMK A01 T00011016  RH  089%=      5-min Rain = 0.01
KWE1 082034Z 34010KT 00/M02 A3029 RMK A01 T00011016  RH  088%=      5-min Rain = 0
KWE1 082035Z 34009KT 00/M02 A3029 RMK A01 T00011017  RH  088%=      5-min Rain = 0
KWE1 082036Z 34009KT 00/M02 A3028 RMK A01 T00011016  RH  088%=      5-min Rain = 0.01
KWE1 082037Z 33011KT 00/M02 A3028 RMK A01 T00011016  RH  088%=      5-min Rain = 0
KWE1 082038Z 34011KT 00/M02 A3028 RMK A01 T00011017  RH  088%=      5-min Rain = 0
KWE1 082039Z 34010KT 00/M02 A3028 RMK A01 T00011017  RH  088%=      5-min Rain = 0.01
KWE1 082040Z 34010KT 00/M02 A3028 RMK A01 T00011017  RH  088%=      5-min Rain = 0
KWE1 082041Z 34009KT 00/M02 A3028 RMK A01 T00011017  RH  088%=      5-min Rain = 0
KWE1 082042Z 34010KT 00/M02 A3028 RMK A01 T00011016  RH  088%=      5-min Rain = 0
KWE1 082043Z 34009KT 00/M02 A3028 RMK A01 T00021016  RH  088%=      5-min Rain = 0.01
KWE1 082044Z 34010KT 00/M02 A3028 RMK A01 T00021016  RH  088%=      5-min Rain = 0
KWE1 082045Z 34008KT 00/M02 A3028 RMK A01 T00011017  RH  088%=      5-min Rain = 0
KWE1 082046Z 34008KT 00/M02 A3028 RMK A01 T00021016  RH  088%=      5-min Rain = 0
KWE1 082047Z 34008KT 00/M02 A3029 RMK A01 T00021015  RH  088%=      5-min Rain = 0
KWE1 082048Z 34009KT 00/M02 A3028 RMK A01 T00021015  RH  088%=      5-min Rain = 0
KWE1 082049Z 34009KT 00/M02 A3028 RMK A01 T00021016  RH  088%=      5-min Rain = 0
KWE1 082050Z 34010KT 00/M02 A3029 RMK A01 T00021016  RH  088%=      5-min Rain = 0
KWE1 082051Z 34009KT 00/M02 A3028 RMK A01 T00021016  RH  088%=      5-min Rain = 0
KWE1 082052Z 34008KT 00/M02 A3028 RMK A01 T00021016  RH  087%=      5-min Rain = 0
KWE1 082053Z 34009KT 00/M02 A3028 RMK A01 T00021017  RH  087%=      5-min Rain = 0
KWE1 082054Z 34010KT 00/M02 A3028 RMK A01 T00021017  RH  087%=      5-min Rain = 0
KWE1 082055Z 33007KT 00/M02 A3029 RMK A01 T00021017  RH  087%=      5-min Rain = 0
KWE1 082056Z 33008KT 00/M02 A3029 RMK A01 T00021016  RH  087%=      5-min Rain = 0
KWE1 082057Z 33008KT 00/M02 A3029 RMK A01 T00031016  RH  087%=      5-min Rain = 0
KWE1 082058Z 33007KT 00/M02 A3029 RMK A01 T00021016  RH  087%=      5-min Rain = 0
KWE1 082059Z 33006KT 00/M02 A3029 RMK A01 T00021016  RH  087%=      5-min Rain = 0
KWE1 082100Z 33005KT 00/M02 A3029 RMK A01 T00031016  RH  087%=      5-min Rain = 0
KWE1 082101Z 33006KT 00/M02 A3029 RMK A01 T00031015  RH  087%=      5-min Rain = 0.01
KWE1 082102Z 34007KT 00/M02 A3028 RMK A01 T00031015  RH  087%=      5-min Rain = 0
KWE1 082103Z 33007KT 00/M02 A3028 RMK A01 T00031016  RH  087%=      5-min Rain = 0
KWE1 082104Z 33007KT 00/M02 A3028 RMK A01 T00031017  RH  087%=      5-min Rain = 0
KWE1 082105Z 33005KT 00/M02 A3028 RMK A01 T00031017  RH  087%=      5-min Rain = 0
KWE1 082106Z 33006KT 00/M02 A3028 RMK A01 T00031017  RH  087%=      5-min Rain = 0
KWE1 082107Z 33006KT 00/M02 A3028 RMK A01 T00031016  RH  087%=      5-min Rain = 0
KWE1 082108Z 33006KT 00/M02 A3028 RMK A01 T00031016  RH  087%=      5-min Rain = 0
KWE1 082109Z 33006KT 00/M02 A3028 RMK A01 T00031016  RH  087%=      5-min Rain = 0
KWE1 082110Z 33005KT 00/M02 A3028 RMK A01 T00031015  RH  087%=      5-min Rain = 0.01
KWE1 082111Z 33006KT 00/M02 A3028 RMK A01 T00031015  RH  088%=      5-min Rain = 0
KWE1 082112Z 33006KT 00/M02 A3028 RMK A01 T00031015  RH  088%=      5-min Rain = 0
KWE1 082113Z 33005KT 00/M02 A3028 RMK A01 T00031015  RH  088%=      5-min Rain = 0
KWE1 082114Z 32005KT 00/M02 A3028 RMK A01 T00031015  RH  088%=      5-min Rain = 0
KWE1 082115Z 33007KT 00/M02 A3028 RMK A01 T00031015  RH  088%=      5-min Rain = 0
KWE1 082116Z 32005KT 00/M02 A3028 RMK A01 T00031015  RH  087%=      5-min Rain = 0
KWE1 082117Z 32005KT 00/M02 A3028 RMK A01 T00031015  RH  087%=      5-min Rain = 0
KWE1 082118Z 32005KT 00/M02 A3028 RMK A01 T00031015  RH  087%=      5-min Rain = 0
KWE1 082119Z 32005KT 00/M02 A3028 RMK A01 T00031015  RH  088%=      5-min Rain = 0.01
KWE1 082120Z 32006KT 00/M02 A3028 RMK A01 T00031015  RH  088%=      5-min Rain = 0
KWE1 082121Z 32006KT 00/M02 A3028 RMK A01 T00031015  RH  088%=      5-min Rain = 0
KWE1 082122Z 32006KT 00/M02 A3028 RMK A01 T00031015  RH  087%=      5-min Rain = 0
KWE1 082123Z 32008KT 00/M02 A3028 RMK A01 T00031016  RH  087%=      5-min Rain = 0
KWE1 082124Z 31006KT 00/M02 A3028 RMK A01 T00031017  RH  087%=      5-min Rain = 0
KWE1 082125Z 32005KT 00/M02 A3028 RMK A01 T00041016  RH  086%=      5-min Rain = 0.01
KWE1 082126Z 32005KT 00/M02 A3028 RMK A01 T00041016  RH  087%=      5-min Rain = 0
KWE1 082127Z 32006KT 00/M02 A3028 RMK A01 T00041015  RH  087%=      5-min Rain = 0
KWE1 082128Z 32006KT 00/M02 A3028 RMK A01 T00041015  RH  087%=      5-min Rain = 0
KWE1 082129Z 32004KT 00/M02 A3028 RMK A01 T00041015  RH  087%=      5-min Rain = 0
KWE1 082130Z 32006KT 01/M01 A3028 RMK A01 T00051014  RH  087%=      5-min Rain = 0
KWE1 082131Z 32007KT 01/M01 A3028 RMK A01 T00051014  RH  087%=      5-min Rain = 0.01
KWE1 082132Z 32007KT 01/M01 A3028 RMK A01 T00051014  RH  087%=      5-min Rain = 0
KWE1 082133Z 32007KT 01/M02 A3028 RMK A01 T00051015  RH  087%=      5-min Rain = 0
KWE1 082134Z 32005KT 01/M02 A3028 RMK A01 T00051015  RH  087%=      5-min Rain = 0
KWE1 082135Z 32005KT 01/M02 A3028 RMK A01 T00051015  RH  087%=      5-min Rain = 0
KWE1 082136Z 32006KT 01/M02 A3028 RMK A01 T00051015  RH  087%=      5-min Rain = 0
KWE1 082137Z 33005KT 01/M02 A3028 RMK A01 T00051015  RH  087%=      5-min Rain = 0
KWE1 082138Z 33005KT 01/M01 A3028 RMK A01 T00051014  RH  087%=      5-min Rain = 0.01
KWE1 082139Z 33004KT 01/M01 A3028 RMK A01 T00051014  RH  087%=      5-min Rain = 0
KWE1 082140Z 32006KT 01/M01 A3028 RMK A01 T00051014  RH  087%=      5-min Rain = 0
KWE1 082141Z 33006KT 01/M01 A3028 RMK A01 T00051014  RH  087%=      5-min Rain = 0
KWE1 082142Z 32006KT 01/M02 A3028 RMK A01 T00051015  RH  087%=      5-min Rain = 0
KWE1 082143Z 33007KT 01/M02 A3028 RMK A01 T00051015  RH  087%=      5-min Rain = 0
KWE1 082144Z 33006KT 01/M02 A3028 RMK A01 T00051015  RH  087%=      5-min Rain = 0
KWE1 082145Z 32005KT 01/M02 A3028 RMK A01 T00051015  RH  087%=      5-min Rain = 0
KWE1 082146Z 33006KT 01/M01 A3028 RMK A01 T00051014  RH  087%=      5-min Rain = 0
KWE1 082147Z 33005KT 01/M01 A3028 RMK A01 T00051014  RH  087%=      5-min Rain = 0
KWE1 082148Z 33004KT 01/M01 A3028 RMK A01 T00051014  RH  087%=      5-min Rain = 0.01
KWE1 082149Z 32006KT 01/M01 A3028 RMK A01 T00051014  RH  087%=      5-min Rain = 0
KWE1 082150Z 33006KT 01/M01 A3028 RMK A01 T00051014  RH  087%=      5-min Rain = 0
KWE1 082151Z 32006KT 01/M01 A3028 RMK A01 T00051014  RH  087%=      5-min Rain = 0
KWE1 082152Z 32007KT 01/M02 A3028 RMK A01 T00051015  RH  087%=      5-min Rain = 0
KWE1 082153Z 32005KT 01/M02 A3028 RMK A01 T00051015  RH  086%=      5-min Rain = 0
KWE1 082154Z 33005KT 01/M02 A3028 RMK A01 T00051015  RH  086%=      5-min Rain = 0
KWE1 082155Z 32005KT 01/M01 A3028 RMK A01 T00051014  RH  087%=      5-min Rain = 0
KWE1 082156Z 32006KT 01/M01 A3028 RMK A01 T00051014  RH  087%=      5-min Rain = 0
KWE1 082157Z 32006KT 01/M01 A3028 RMK A01 T00051014  RH  087%=      5-min Rain = 0
KWE1 082158Z 32006KT 01/M01 A3028 RMK A01 T00051014  RH  087%=      5-min Rain = 0.01
KWE1 082159Z 32006KT 01/M01 A3028 RMK A01 T00051014  RH  087%=      5-min Rain = 0
KWE1 082200Z 31006KT 01/M01 A3028 RMK A01 T00051014  RH  087%=      5-min Rain = 0
KWE1 082201Z 32005KT 01/M01 A3028 RMK A01 T00051014  RH  087%=      5-min Rain = 0
KWE1 082202Z 32005KT 01/M01 A3028 RMK A01 T00051013  RH  087%=      5-min Rain = 0
KWE1 082203Z 31006KT 01/M01 A3028 RMK A01 T00051013  RH  088%=      5-min Rain = 0
KWE1 082204Z 32006KT 01/M01 A3028 RMK A01 T00051013  RH  088%=      5-min Rain = 0
KWE1 082205Z 31005KT 01/M01 A3028 RMK A01 T00051013  RH  088%=      5-min Rain = 0
KWE1 082206Z 32006KT 01/M01 A3028 RMK A01 T00051013  RH  088%=      5-min Rain = 0
KWE1 082207Z 32005KT 01/M01 A3028 RMK A01 T00051014  RH  087%=      5-min Rain = 0
KWE1 082208Z 32006KT 01/M01 A3028 RMK A01 T00051013  RH  087%=      5-min Rain = 0
KWE1 082209Z 31006KT 01/M01 A3028 RMK A01 T00051013  RH  088%=      5-min Rain = 0
KWE1 082210Z 31005KT 01/M01 A3028 RMK A01 T00051013  RH  087%=      5-min Rain = 0
KWE1 082211Z 31005KT 01/M01 A3028 RMK A01 T00051013  RH  087%=      5-min Rain = 0
KWE1 082212Z 31005KT 01/M01 A3027 RMK A01 T00051013  RH  088%=      5-min Rain = 0
KWE1 082213Z 32005KT 01/M01 A3027 RMK A01 T00051013  RH  088%=      5-min Rain = 0
KWE1 082214Z 32004KT 01/M01 A3027 RMK A01 T00051013  RH  088%=      5-min Rain = 0
KWE1 082215Z 31005KT 01/M01 A3027 RMK A01 T00051013  RH  088%=      5-min Rain = 0
KWE1 082216Z 32004KT 01/M01 A3027 RMK A01 T00051013  RH  088%=      5-min Rain = 0
KWE1 082217Z 31004KT 01/M01 A3027 RMK A01 T00051013  RH  088%=      5-min Rain = 0
KWE1 082218Z 31005KT 01/M01 A3027 RMK A01 T00051013  RH  088%=      5-min Rain = 0
KWE1 082219Z 31005KT 01/M01 A3027 RMK A01 T00051012  RH  088%=      5-min Rain = 0
KWE1 082220Z 31006KT 01/M01 A3027 RMK A01 T00051013  RH  088%=      5-min Rain = 0.01
KWE1 082221Z 31005KT 01/M01 A3028 RMK A01 T00051013  RH  088%=      5-min Rain = 0
KWE1 082222Z 31005KT 01/M01 A3028 RMK A01 T00051012  RH  088%=      5-min Rain = 0
KWE1 082223Z 31005KT 01/M01 A3028 RMK A01 T00061012  RH  088%=      5-min Rain = 0
KWE1 082224Z 31005KT 01/M01 A3028 RMK A01 T00061012  RH  088%=      5-min Rain = 0
KWE1 082225Z 31005KT 01/M01 A3028 RMK A01 T00061012  RH  088%=      5-min Rain = 0
KWE1 082226Z 31005KT 01/M01 A3028 RMK A01 T00061012  RH  088%=      5-min Rain = 0
KWE1 082227Z 32005KT 01/M01 A3028 RMK A01 T00061012  RH  088%=      5-min Rain = 0
KWE1 082228Z 31005KT 01/M01 A3028 RMK A01 T00061012  RH  088%=      5-min Rain = 0
KWE1 082229Z 31005KT 01/M01 A3028 RMK A01 T00061012  RH  088%=      5-min Rain = 0
KWE1 082230Z 32005KT 01/M01 A3028 RMK A01 T00051012  RH  088%=      5-min Rain = 0
KWE1 082231Z 32006KT 01/M01 A3028 RMK A01 T00061012  RH  088%=      5-min Rain = 0
KWE1 082232Z 31005KT 01/M01 A3028 RMK A01 T00061013  RH  088%=      5-min Rain = 0
KWE1 082233Z 32005KT 01/M01 A3028 RMK A01 T00051013  RH  087%=      5-min Rain = 0
KWE1 082234Z 32007KT 01/M01 A3028 RMK A01 T00061013  RH  087%=      5-min Rain = 0
KWE1 082235Z 32006KT 01/M01 A3028 RMK A01 T00061013  RH  087%=      5-min Rain = 0
KWE1 082236Z 32006KT 01/M01 A3028 RMK A01 T00061013  RH  087%=      5-min Rain = 0
KWE1 082237Z 32007KT 01/M01 A3028 RMK A01 T00061014  RH  087%=      5-min Rain = 0
KWE1 082238Z 32006KT 01/M01 A3028 RMK A01 T00061014  RH  086%=      5-min Rain = 0
KWE1 082239Z 32006KT 01/M01 A3028 RMK A01 T00061014  RH  086%=      5-min Rain = 0
KWE1 082240Z 32006KT 01/M01 A3028 RMK A01 T00061014  RH  086%=      5-min Rain = 0
KWE1 082241Z 32007KT 01/M01 A3028 RMK A01 T00061014  RH  086%=      5-min Rain = 0
KWE1 082242Z 32007KT 01/M01 A3028 RMK A01 T00061014  RH  086%=      5-min Rain = 0
KWE1 082243Z 32006KT 01/M01 A3028 RMK A01 T00061014  RH  086%=      5-min Rain = 0.01
KWE1 082244Z 32006KT 01/M01 A3028 RMK A01 T00061014  RH  086%=      5-min Rain = 0
KWE1 082245Z 32006KT 01/M01 A3028 RMK A01 T00061014  RH  086%=      5-min Rain = 0
KWE1 082246Z 32006KT 01/M01 A3028 RMK A01 T00061014  RH  086%=      5-min Rain = 0
KWE1 082247Z 32007KT 01/M01 A3028 RMK A01 T00061014  RH  086%=      5-min Rain = 0
KWE1 082248Z 32006KT 01/M01 A3028 RMK A01 T00061014  RH  086%=      5-min Rain = 0
KWE1 082249Z 32007KT 01/M01 A3028 RMK A01 T00061014  RH  086%=      5-min Rain = 0
KWE1 082250Z 32006KT 01/M02 A3028 RMK A01 T00061015  RH  086%=      5-min Rain = 0
KWE1 082251Z 32006KT 01/M02 A3028 RMK A01 T00061015  RH  086%=      5-min Rain = 0
KWE1 082252Z 32005KT 01/M02 A3028 RMK A01 T00061015  RH  086%=      5-min Rain = 0
KWE1 082253Z 32006KT 01/M01 A3028 RMK A01 T00061014  RH  086%=      5-min Rain = 0
KWE1 082254Z 32006KT 01/M01 A3028 RMK A01 T00061014  RH  086%=      5-min Rain = 0
KWE1 082255Z 32005KT 01/M01 A3028 RMK A01 T00061014  RH  086%=      5-min Rain = 0
KWE1 082256Z 33005KT 01/M01 A3028 RMK A01 T00061014  RH  086%=      5-min Rain = 0
KWE1 082257Z 32005KT 01/M01 A3028 RMK A01 T00061014  RH  086%=      5-min Rain = 0
KWE1 082258Z 32004KT 01/M01 A3028 RMK A01 T00061014  RH  087%=      5-min Rain = 0
KWE1 082259Z 32005KT 01/M01 A3028 RMK A01 T00061014  RH  087%=      5-min Rain = 0
KWE1 082300Z 32005KT 01/M01 A3028 RMK A01 T00061013  RH  087%=      5-min Rain = 0
KWE1 082301Z 32005KT 01/M01 A3028 RMK A01 T00061013  RH  087%=      5-min Rain = 0
KWE1 082302Z 32004KT 01/M01 A3028 RMK A01 T00061013  RH  087%=      5-min Rain = 0
KWE1 082303Z 32005KT 01/M01 A3028 RMK A01 T00061013  RH  087%=      5-min Rain = 0
KWE1 082304Z 32005KT 01/M01 A3028 RMK A01 T00061014  RH  087%=      5-min Rain = 0
KWE1 082305Z 32006KT 01/M01 A3028 RMK A01 T00061013  RH  087%=      5-min Rain = 0
KWE1 082306Z 32005KT 01/M01 A3028 RMK A01 T00061014  RH  087%=      5-min Rain = 0
KWE1 082307Z 32005KT 01/M01 A3028 RMK A01 T00061014  RH  087%=      5-min Rain = 0
KWE1 082308Z 32006KT 01/M01 A3028 RMK A01 T00061014  RH  087%=      5-min Rain = 0
KWE1 082309Z 32005KT 01/M01 A3028 RMK A01 T00061014  RH  087%=      5-min Rain = 0
KWE1 082310Z 32005KT 01/M01 A3028 RMK A01 T00061014  RH  087%=      5-min Rain = 0
KWE1 082311Z 32006KT 01/M01 A3028 RMK A01 T00061014  RH  087%=      5-min Rain = 0
KWE1 082312Z 32005KT 01/M01 A3028 RMK A01 T00061014  RH  086%=      5-min Rain = 0
KWE1 082313Z 32005KT 01/M01 A3028 RMK A01 T00061014  RH  086%=      5-min Rain = 0
KWE1 082314Z 31005KT 01/M01 A3028 RMK A01 T00061014  RH  086%=      5-min Rain = 0
KWE1 082315Z 32005KT 01/M01 A3028 RMK A01 T00061014  RH  086%=      5-min Rain = 0
KWE1 082316Z 32005KT 01/M01 A3028 RMK A01 T00061014  RH  087%=      5-min Rain = 0
KWE1 082317Z 32005KT 01/M01 A3028 RMK A01 T00061014  RH  087%=      5-min Rain = 0
KWE1 082318Z 32005KT 01/M01 A3028 RMK A01 T00061014  RH  087%=      5-min Rain = 0
KWE1 082319Z 32004KT 01/M01 A3028 RMK A01 T00061013  RH  087%=      5-min Rain = 0
KWE1 082320Z 32005KT 01/M01 A3028 RMK A01 T00061013  RH  087%=      5-min Rain = 0
KWE1 082321Z 31005KT 01/M01 A3028 RMK A01 T00061013  RH  087%=      5-min Rain = 0
KWE1 082322Z 32005KT 01/M01 A3028 RMK A01 T00061013  RH  087%=      5-min Rain = 0
KWE1 082323Z 31004KT 01/M01 A3028 RMK A01 T00061013  RH  087%=      5-min Rain = 0.01
KWE1 082324Z 32005KT 01/M01 A3028 RMK A01 T00061013  RH  087%=      5-min Rain = 0
KWE1 082325Z 32005KT 01/M01 A3028 RMK A01 T00061013  RH  087%=      5-min Rain = 0
KWE1 082326Z 31004KT 01/M01 A3028 RMK A01 T00061013  RH  087%=      5-min Rain = 0
KWE1 082327Z 31004KT 01/M01 A3028 RMK A01 T00061013  RH  087%=      5-min Rain = 0
KWE1 082328Z 31005KT 01/M01 A3028 RMK A01 T00061013  RH  087%=      5-min Rain = 0
KWE1 082329Z 31005KT 01/M01 A3028 RMK A01 T00061013  RH  087%=      5-min Rain = 0
KWE1 082330Z 31004KT 01/M01 A3028 RMK A01 T00061013  RH  087%=      5-min Rain = 0
KWE1 082331Z 31005KT 01/M01 A3028 RMK A01 T00061013  RH  087%=      5-min Rain = 0
KWE1 082332Z 31005KT 01/M01 A3028 RMK A01 T00061013  RH  087%=      5-min Rain = 0
KWE1 082333Z 31004KT 01/M01 A3028 RMK A01 T00061013  RH  087%=      5-min Rain = 0
KWE1 082334Z 30004KT 01/M01 A3028 RMK A01 T00061013  RH  087%=      5-min Rain = 0
KWE1 082335Z 30005KT 01/M01 A3028 RMK A01 T00061013  RH  087%=      5-min Rain = 0
KWE1 082336Z 30005KT 01/M01 A3028 RMK A01 T00051013  RH  088%=      5-min Rain = 0
KWE1 082337Z 30005KT 01/M01 A3029 RMK A01 T00051013  RH  088%=      5-min Rain = 0
KWE1 082338Z 30006KT 01/M01 A3029 RMK A01 T00051013  RH  088%=      5-min Rain = 0
KWE1 082339Z 30005KT 01/M01 A3029 RMK A01 T00051012  RH  088%=      5-min Rain = 0
KWE1 082340Z 31005KT 01/M01 A3029 RMK A01 T00051012  RH  088%=      5-min Rain = 0
KWE1 082341Z 30005KT 01/M01 A3029 RMK A01 T00051012  RH  088%=      5-min Rain = 0
KWE1 082342Z 30005KT 01/M01 A3029 RMK A01 T00051013  RH  088%=      5-min Rain = 0
KWE1 082343Z 30005KT 00/M01 A3029 RMK A01 T00041013  RH  088%=      5-min Rain = 0
KWE1 082344Z 30005KT 01/M01 A3028 RMK A01 T00051013  RH  088%=      5-min Rain = 0
KWE1 082345Z 30005KT 01/M01 A3028 RMK A01 T00051013  RH  088%=      5-min Rain = 0
KWE1 082346Z 31004KT 01/M01 A3029 RMK A01 T00051013  RH  088%=      5-min Rain = 0
KWE1 082347Z 30004KT 01/M01 A3029 RMK A01 T00051013  RH  088%=      5-min Rain = 0
KWE1 082348Z 30004KT 01/M01 A3029 RMK A01 T00051012  RH  088%=      5-min Rain = 0
KWE1 082349Z 31005KT 01/M01 A3029 RMK A01 T00051012  RH  088%=      5-min Rain = 0
KWE1 082350Z 30005KT 01/M01 A3029 RMK A01 T00051012  RH  088%=      5-min Rain = 0
KWE1 082351Z 31004KT 01/M01 A3029 RMK A01 T00051012  RH  089%=      5-min Rain = 0
KWE1 082352Z 30004KT 00/M01 A3029 RMK A01 T00041012  RH  089%=      5-min Rain = 0
KWE1 082353Z 31005KT 01/M01 A3029 RMK A01 T00051012  RH  089%=      5-min Rain = 0
KWE1 082354Z 30005KT 01/M01 A3029 RMK A01 T00051012  RH  089%=      5-min Rain = 0
KWE1 082355Z 30005KT 01/M01 A3029 RMK A01 T00051012  RH  089%=      5-min Rain = 0
KWE1 082356Z 31005KT 01/M01 A3029 RMK A01 T00051012  RH  089%=      5-min Rain = 0
KWE1 082357Z 31004KT 01/M01 A3029 RMK A01 T00051012  RH  089%=      5-min Rain = 0
KWE1 082358Z 31004KT 01/M01 A3029 RMK A01 T00051012  RH  089%=      5-min Rain = 0
KWE1 082359Z 31004KT 00/M01 A3029 RMK A01 T00041012  RH  089%=      5-min Rain = 0
KWE1 090000Z 31004KT 00/M01 A3029 RMK A01 T00041012  RH  089%=      5-min Rain = 0
KWE1 090001Z 30004KT 00/M01 A3029 RMK A01 T00041012  RH  089%=      5-min Rain = 0
KWE1 090002Z 31004KT 00/M01 A3029 RMK A01 T00041012  RH  089%=      5-min Rain = 0
KWE1 090003Z 31004KT 00/M01 A3029 RMK A01 T00041012  RH  089%=      5-min Rain = 0
KWE1 090004Z 31004KT 00/M01 A3029 RMK A01 T00041012  RH  089%=      5-min Rain = 0
KWE1 090005Z 31004KT 00/M01 A3029 RMK A01 T00031013  RH  089%=      5-min Rain = 0
KWE1 090006Z 31004KT 00/M01 A3029 RMK A01 T00041012  RH  089%=      5-min Rain = 0
KWE1 090007Z 31004KT 00/M01 A3029 RMK A01 T00041012  RH  089%=      5-min Rain = 0
KWE1 090008Z 31004KT 00/M01 A3029 RMK A01 T00031013  RH  089%=      5-min Rain = 0
KWE1 090009Z 31004KT 00/M01 A3029 RMK A01 T00031013  RH  089%=      5-min Rain = 0
KWE1 090010Z 31004KT 00/M01 A3029 RMK A01 T00031013  RH  089%=      5-min Rain = 0
KWE1 090011Z 31004KT 00/M01 A3029 RMK A01 T00031013  RH  089%=      5-min Rain = 0
KWE1 090012Z 30004KT 00/M01 A3029 RMK A01 T00031013  RH  089%=      5-min Rain = 0
KWE1 090013Z 30004KT 00/M01 A3029 RMK A01 T00031013  RH  089%=      5-min Rain = 0
KWE1 090014Z 30005KT 00/M01 A3029 RMK A01 T00021013  RH  089%=      5-min Rain = 0
KWE1 090015Z 30004KT 00/M01 A3029 RMK A01 T00021013  RH  089%=      5-min Rain = 0
KWE1 090016Z 30004KT 00/M01 A3029 RMK A01 T00021013  RH  089%=      5-min Rain = 0
KWE1 090017Z 30004KT 00/M01 A3029 RMK A01 T00021013  RH  089%=      5-min Rain = 0
KWE1 090018Z 30004KT 00/M01 A3029 RMK A01 T00021013  RH  089%=      5-min Rain = 0
KWE1 090019Z 30005KT 00/M01 A3029 RMK A01 T00021013  RH  089%=      5-min Rain = 0
KWE1 090020Z 30004KT 00/M01 A3029 RMK A01 T00021013  RH  089%=      5-min Rain = 0
KWE1 090021Z 30004KT 00/M01 A3029 RMK A01 T00031013  RH  089%=      5-min Rain = 0
KWE1 090022Z 30004KT 00/M01 A3029 RMK A01 T00031013  RH  089%=      5-min Rain = 0
KWE1 090023Z 30004KT 00/M01 A3029 RMK A01 T00021013  RH  089%=      5-min Rain = 0
KWE1 090024Z 30004KT 00/M01 A3029 RMK A01 T00021013  RH  089%=      5-min Rain = 0
KWE1 090025Z 30004KT 00/M01 A3029 RMK A01 T00031013  RH  089%=      5-min Rain = 0
KWE1 090026Z 30005KT 00/M01 A3029 RMK A01 T00031013  RH  089%=      5-min Rain = 0
KWE1 090027Z 30005KT 00/M01 A3029 RMK A01 T00031013  RH  089%=      5-min Rain = 0
KWE1 090028Z 30004KT 00/M01 A3029 RMK A01 T00031013  RH  089%=      5-min Rain = 0
KWE1 090029Z 30004KT 00/M01 A3029 RMK A01 T00031013  RH  089%=      5-min Rain = 0
KWE1 090030Z 30005KT 00/M01 A3029 RMK A01 T00031013  RH  089%=      5-min Rain = 0
KWE1 090031Z 30004KT 00/M01 A3029 RMK A01 T00031013  RH  089%=      5-min Rain = 0
KWE1 090032Z 30004KT 00/M01 A3029 RMK A01 T00031012  RH  089%=      5-min Rain = 0
KWE1 090033Z 30004KT 00/M01 A3029 RMK A01 T00031012  RH  089%=      5-min Rain = 0
KWE1 090034Z 30004KT 00/M01 A303 RMK A01 T00031012  RH  089%=      5-min Rain = 0
KWE1 090035Z 30004KT 00/M01 A303 RMK A01 T00031012  RH  089%=      5-min Rain = 0
KWE1 090036Z 29005KT 00/M01 A303 RMK A01 T00031012  RH  089%=      5-min Rain = 0
KWE1 090037Z 29005KT 00/M01 A303 RMK A01 T00031012  RH  089%=      5-min Rain = 0
KWE1 090038Z 28004KT 00/M01 A303 RMK A01 T00031012  RH  090%=      5-min Rain = 0
KWE1 090039Z 28004KT 00/M01 A303 RMK A01 T00031012  RH  090%=      5-min Rain = 0
KWE1 090040Z 28004KT 00/M01 A303 RMK A01 T00041012  RH  090%=      5-min Rain = 0
KWE1 090041Z 28004KT 00/M01 A303 RMK A01 T00031011  RH  090%=      5-min Rain = 0
KWE1 090042Z 28004KT 00/M01 A303 RMK A01 T00031012  RH  090%=      5-min Rain = 0
KWE1 090043Z 28004KT 00/M01 A303 RMK A01 T00031011  RH  090%=      5-min Rain = 0
KWE1 090044Z 28004KT 00/M01 A303 RMK A01 T00031012  RH  090%=      5-min Rain = 0
KWE1 090045Z 28004KT 00/M01 A303 RMK A01 T00031011  RH  090%=      5-min Rain = 0
KWE1 090046Z 28003KT 00/M01 A303 RMK A01 T00031011  RH  090%=      5-min Rain = 0
KWE1 090047Z 28003KT 00/M01 A303 RMK A01 T00031011  RH  090%=      5-min Rain = 0
KWE1 090048Z 28003KT 00/M01 A303 RMK A01 T00031011  RH  090%=      5-min Rain = 0
KWE1 090049Z 28003KT 00/M01 A303 RMK A01 T00031011  RH  090%=      5-min Rain = 0
KWE1 090050Z 28003KT 00/M01 A303 RMK A01 T00031010  RH  090%=      5-min Rain = 0
KWE1 090051Z 29003KT 00/M01 A303 RMK A01 T00041010  RH  090%=      5-min Rain = 0
KWE1 090052Z 28003KT 00/M01 A303 RMK A01 T00031011  RH  090%=      5-min Rain = 0
KWE1 090053Z 28003KT 00/M01 A303 RMK A01 T00031010  RH  091%=      5-min Rain = 0
KWE1 090054Z 29003KT 00/M01 A303 RMK A01 T00031010  RH  091%=      5-min Rain = 0
KWE1 090055Z 29003KT 00/M01 A303 RMK A01 T00031010  RH  091%=      5-min Rain = 0
KWE1 090056Z 29003KT 00/M01 A303 RMK A01 T00031010  RH  091%=      5-min Rain = 0
KWE1 090057Z 29002KT 00/M01 A303 RMK A01 T00031010  RH  091%=      5-min Rain = 0
KWE1 090058Z 29002KT 00/M01 A303 RMK A01 T00031010  RH  091%=      5-min Rain = 0
KWE1 090059Z 29002KT 00/M01 A303 RMK A01 T00031010  RH  091%=      5-min Rain = 0
KWE1 090100Z 29002KT 00/M01 A303 RMK A01 T00031010  RH  091%=      5-min Rain = 0
KWE1 090101Z 30002KT 00/M01 A303 RMK A01 T00031010  RH  091%=      5-min Rain = 0
KWE1 090102Z 29002KT 00/M01 A303 RMK A01 T00031010  RH  091%=      5-min Rain = 0
KWE1 090103Z 30002KT 00/M01 A303 RMK A01 T00031010  RH  091%=      5-min Rain = 0
KWE1 090104Z 30002KT 00/M01 A303 RMK A01 T00031010  RH  091%=      5-min Rain = 0
KWE1 090105Z 30002KT 00/M01 A303 RMK A01 T00031010  RH  091%=      5-min Rain = 0
KWE1 090106Z 30002KT 00/M01 A303 RMK A01 T00041010  RH  091%=      5-min Rain = 0
KWE1 090107Z 30001KT 00/M01 A303 RMK A01 T00041010  RH  091%=      5-min Rain = 0
KWE1 090108Z 29002KT 00/M01 A303 RMK A01 T00031010  RH  091%=      5-min Rain = 0
KWE1 090109Z 29002KT 00/M01 A303 RMK A01 T00031010  RH  091%=      5-min Rain = 0
KWE1 090110Z 30002KT 00/M01 A303 RMK A01 T00031010  RH  091%=      5-min Rain = 0
KWE1 090111Z 29002KT 00/M01 A303 RMK A01 T00031010  RH  091%=      5-min Rain = 0
KWE1 090112Z 29002KT 00/M01 A303 RMK A01 T00031010  RH  091%=      5-min Rain = 0
KWE1 090113Z 29002KT 00/M01 A303 RMK A01 T00031010  RH  091%=      5-min Rain = 0
KWE1 090114Z 30002KT 00/M01 A303 RMK A01 T00031010  RH  091%=      5-min Rain = 0
KWE1 090115Z 30002KT 00/M01 A303 RMK A01 T00031010  RH  091%=      5-min Rain = 0
KWE1 090116Z 30002KT 00/M01 A303 RMK A01 T00041009  RH  091%=      5-min Rain = 0
KWE1 090117Z 30002KT 00/M01 A303 RMK A01 T00031009  RH  091%=      5-min Rain = 0
KWE1 090118Z 29002KT 00/M01 A303 RMK A01 T00031010  RH  091%=      5-min Rain = 0
KWE1 090119Z 29002KT 00/M01 A303 RMK A01 T00031010  RH  091%=      5-min Rain = 0
KWE1 090120Z 30003KT 00/M01 A303 RMK A01 T00031009  RH  091%=      5-min Rain = 0
KWE1 090121Z 29002KT 00/M01 A303 RMK A01 T00031009  RH  091%=      5-min Rain = 0
KWE1 090122Z 30002KT 00/M01 A303 RMK A01 T00031010  RH  091%=      5-min Rain = 0
KWE1 090123Z 29003KT 00/M01 A303 RMK A01 T00031010  RH  091%=      5-min Rain = 0
KWE1 090124Z 29003KT 00/M01 A303 RMK A01 T00031009  RH  091%=      5-min Rain = 0
KWE1 090125Z 29003KT 00/M01 A303 RMK A01 T00031009  RH  091%=      5-min Rain = 0
KWE1 090126Z 29003KT 00/M01 A303 RMK A01 T00031009  RH  091%=      5-min Rain = 0
KWE1 090127Z 29003KT 00/M01 A303 RMK A01 T00031009  RH  091%=      5-min Rain = 0
KWE1 090128Z 29003KT 00/M01 A303 RMK A01 T00031009  RH  091%=      5-min Rain = 0
KWE1 090129Z 28003KT 00/M01 A303 RMK A01 T00031009  RH  091%=      5-min Rain = 0
KWE1 090130Z 29003KT 00/M01 A303 RMK A01 T00031009  RH  091%=      5-min Rain = 0
KWE1 090131Z 29003KT 00/M01 A303 RMK A01 T00031009  RH  091%=      5-min Rain = 0
KWE1 090132Z 29004KT 00/M01 A303 RMK A01 T00031009  RH  091%=      5-min Rain = 0
KWE1 090133Z 29003KT 00/M01 A3031 RMK A01 T00031009  RH  091%=      5-min Rain = 0
KWE1 090134Z 29004KT 00/M01 A3031 RMK A01 T00031009  RH  091%=      5-min Rain = 0
KWE1 090135Z 29003KT 00/M01 A3031 RMK A01 T00031009  RH  091%=      5-min Rain = 0
KWE1 090136Z 29004KT 00/M01 A3031 RMK A01 T00031009  RH  091%=      5-min Rain = 0
KWE1 090137Z 29003KT 00/M01 A3031 RMK A01 T00031009  RH  091%=      5-min Rain = 0
KWE1 090138Z 29004KT 00/M01 A3031 RMK A01 T00041009  RH  091%=      5-min Rain = 0
KWE1 090139Z 29003KT 00/M01 A3031 RMK A01 T00041009  RH  091%=      5-min Rain = 0
KWE1 090140Z 29003KT 00/M01 A3031 RMK A01 T00041009  RH  091%=      5-min Rain = 0
KWE1 090141Z 29003KT 00/M01 A3031 RMK A01 T00041009  RH  091%=      5-min Rain = 0
KWE1 090142Z 30003KT 00/M01 A3031 RMK A01 T00041009  RH  091%=      5-min Rain = 0
KWE1 090143Z 30003KT 00/M01 A3031 RMK A01 T00041009  RH  091%=      5-min Rain = 0
KWE1 090144Z 30003KT 00/M01 A3031 RMK A01 T00041009  RH  091%=      5-min Rain = 0
KWE1 090145Z 29003KT 00/M01 A3031 RMK A01 T00041009  RH  091%=      5-min Rain = 0
KWE1 090146Z 29003KT 00/M01 A3031 RMK A01 T00041009  RH  091%=      5-min Rain = 0
KWE1 090147Z 29003KT 00/M01 A3031 RMK A01 T00041009  RH  091%=      5-min Rain = 0
KWE1 090148Z 30003KT 00/M01 A3031 RMK A01 T00041009  RH  091%=      5-min Rain = 0
KWE1 090149Z 30003KT 00/M01 A3031 RMK A01 T00041009  RH  091%=      5-min Rain = 0
KWE1 090150Z 30003KT 00/M01 A3031 RMK A01 T00041010  RH  091%=      5-min Rain = 0
KWE1 090151Z 30003KT 00/M01 A3031 RMK A01 T00041009  RH  091%=      5-min Rain = 0
KWE1 090152Z 30002KT 00/M01 A3031 RMK A01 T00041010  RH  091%=      5-min Rain = 0
KWE1 090153Z 30003KT 00/M01 A3031 RMK A01 T00041010  RH  091%=      5-min Rain = 0
KWE1 090154Z 30003KT 00/M01 A3031 RMK A01 T00041009  RH  091%=      5-min Rain = 0
KWE1 090155Z 30003KT 00/M01 A3031 RMK A01 T00041009  RH  091%=      5-min Rain = 0
KWE1 090156Z 30003KT 00/M01 A3031 RMK A01 T00041009  RH  091%=      5-min Rain = 0
KWE1 090157Z 30002KT 00/M01 A3031 RMK A01 T00041009  RH  091%=      5-min Rain = 0
KWE1 090158Z 30002KT 00/M01 A3031 RMK A01 T00041009  RH  091%=      5-min Rain = 0
KWE1 090159Z 30003KT 00/M01 A3031 RMK A01 T00041009  RH  091%=      5-min Rain = 0
KWE1 090200Z 30003KT 00/M01 A3031 RMK A01 T00041009  RH  091%=      5-min Rain = 0
KWE1 090201Z 30003KT 00/M01 A3031 RMK A01 T00041009  RH  091%=      5-min Rain = 0
KWE1 090202Z 31003KT 00/M01 A3031 RMK A01 T00041009  RH  091%=      5-min Rain = 0
KWE1 090203Z 30003KT 00/M01 A3031 RMK A01 T00041009  RH  091%=      5-min Rain = 0
KWE1 090204Z 30003KT 00/M01 A3031 RMK A01 T00041009  RH  091%=      5-min Rain = 0
KWE1 090205Z 30004KT 00/M01 A3031 RMK A01 T00041009  RH  091%=      5-min Rain = 0
KWE1 090206Z 30004KT 00/M01 A3031 RMK A01 T00041009  RH  091%=      5-min Rain = 0
KWE1 090207Z 30005KT 00/M01 A3031 RMK A01 T00041009  RH  091%=      5-min Rain = 0
KWE1 090208Z 30004KT 00/M01 A3031 RMK A01 T00041009  RH  091%=      5-min Rain = 0
KWE1 090209Z 29005KT 00/M01 A3031 RMK A01 T00041009  RH  091%=      5-min Rain = 0
KWE1 090210Z 29004KT 00/M01 A3031 RMK A01 T00041009  RH  091%=      5-min Rain = 0
KWE1 090211Z 29004KT 00/M01 A3031 RMK A01 T00041009  RH  091%=      5-min Rain = 0
KWE1 090212Z 29004KT 00/M01 A3031 RMK A01 T00041010  RH  091%=      5-min Rain = 0
KWE1 090213Z 29004KT 00/M01 A3031 RMK A01 T00041010  RH  091%=      5-min Rain = 0
KWE1 090214Z 29004KT 00/M01 A3031 RMK A01 T00041010  RH  091%=      5-min Rain = 0
KWE1 090215Z 29005KT 00/M01 A3031 RMK A01 T00031010  RH  091%=      5-min Rain = 0
KWE1 090216Z 29005KT 00/M01 A3032 RMK A01 T00031010  RH  091%=      5-min Rain = 0
KWE1 090217Z 29005KT 00/M01 A3032 RMK A01 T00031011  RH  091%=      5-min Rain = 0
KWE1 090218Z 28005KT 00/M01 A3032 RMK A01 T00031011  RH  090%=      5-min Rain = 0
KWE1 090219Z 28005KT 00/M01 A3032 RMK A01 T00021012  RH  090%=      5-min Rain = 0
KWE1 090220Z 28005KT 00/M01 A3031 RMK A01 T00021012  RH  090%=      5-min Rain = 0
KWE1 090221Z 28004KT 00/M01 A3031 RMK A01 T00021012  RH  090%=      5-min Rain = 0
KWE1 090222Z 28005KT 00/M01 A3031 RMK A01 T00021012  RH  090%=      5-min Rain = 0
KWE1 090223Z 28004KT 00/M01 A3031 RMK A01 T00011012  RH  091%=      5-min Rain = 0
KWE1 090224Z 28005KT 00/M01 A3031 RMK A01 T00011012  RH  091%=      5-min Rain = 0
KWE1 090225Z 29005KT 00/M01 A3031 RMK A01 T00011013  RH  091%=      5-min Rain = 0
KWE1 090226Z 29004KT 00/01 A3031 RMK A01 T00000-13  RH  091%=      5-min Rain = 0
KWE1 090227Z 28004KT 00/01 A3031 RMK A01 T00000-14  RH  091%=      5-min Rain = 0
KWE1 090228Z 28004KT M00/M01 A3031 RMK A01 T10011014  RH  091%=      5-min Rain = 0
KWE1 090229Z 28004KT 00/01 A3031 RMK A01 T00-00-14  RH  091%=      5-min Rain = 0
KWE1 090230Z 28004KT M00/M01 A3031 RMK A01 T10011014  RH  091%=      5-min Rain = 0
KWE1 090231Z 28005KT M00/M01 A3031 RMK A01 T10011014  RH  091%=      5-min Rain = 0
KWE1 090232Z 28004KT M00/M02 A3031 RMK A01 T10021015  RH  091%=      5-min Rain = 0
KWE1 090233Z 28004KT M00/M02 A3031 RMK A01 T10021015  RH  091%=      5-min Rain = 0
KWE1 090234Z 28004KT M00/M02 A3031 RMK A01 T10031016  RH  091%=      5-min Rain = 0
KWE1 090235Z 28004KT M00/M02 A3031 RMK A01 T10031016  RH  091%=      5-min Rain = 0
KWE1 090236Z 28005KT M00/M02 A3031 RMK A01 T10031016  RH  091%=      5-min Rain = 0
KWE1 090237Z 28005KT M00/M02 A3031 RMK A01 T10041017  RH  091%=      5-min Rain = 0
KWE1 090238Z 28005KT M00/M02 A3031 RMK A01 T10041017  RH  091%=      5-min Rain = 0
KWE1 090239Z 28005KT M00/M02 A3031 RMK A01 T10041017  RH  091%=      5-min Rain = 0
KWE1 090240Z 28005KT M00/M02 A3031 RMK A01 T10041017  RH  091%=      5-min Rain = 0
KWE1 090241Z 28005KT M00/M02 A3031 RMK A01 T10041018  RH  091%=      5-min Rain = 0
KWE1 090242Z 28004KT M01/M02 A3031 RMK A01 T10051018  RH  091%=      5-min Rain = 0
KWE1 090243Z 28004KT M01/M02 A3031 RMK A01 T10051018  RH  091%=      5-min Rain = 0
KWE1 090244Z 28004KT M01/M02 A3031 RMK A01 T10051018  RH  091%=      5-min Rain = 0
KWE1 090245Z 28004KT M01/M02 A3031 RMK A01 T10051019  RH  091%=      5-min Rain = 0
KWE1 090246Z 28004KT M01/M02 A3031 RMK A01 T10051018  RH  091%=      5-min Rain = 0
KWE1 090247Z 28004KT M01/M02 A3031 RMK A01 T10051018  RH  091%=      5-min Rain = 0
KWE1 090248Z 28004KT M01/M02 A3031 RMK A01 T10061019  RH  091%=      5-min Rain = 0
KWE1 090249Z 28005KT M01/M02 A3031 RMK A01 T10061019  RH  091%=      5-min Rain = 0
KWE1 090250Z 28005KT M01/M02 A3031 RMK A01 T10061020  RH  091%=      5-min Rain = 0
KWE1 090251Z 28005KT M01/M02 A3031 RMK A01 T10061020  RH  091%=      5-min Rain = 0
KWE1 090252Z 28005KT M01/M02 A3031 RMK A01 T10071021  RH  091%=      5-min Rain = 0
KWE1 090253Z 29005KT M01/M02 A3031 RMK A01 T10071021  RH  091%=      5-min Rain = 0
KWE1 090254Z 29005KT M01/M02 A3031 RMK A01 T10071021  RH  091%=      5-min Rain = 0
KWE1 090255Z 28005KT M01/M02 A3031 RMK A01 T10081022  RH  090%=      5-min Rain = 0
KWE1 090256Z 28005KT M01/M02 A3031 RMK A01 T10081022  RH  090%=      5-min Rain = 0
KWE1 090257Z 28005KT M01/M02 A3031 RMK A01 T10081023  RH  090%=      5-min Rain = 0
KWE1 090258Z 28005KT M01/M02 A3031 RMK A01 T10091023  RH  090%=      5-min Rain = 0
KWE1 090259Z 28005KT M01/M02 A3031 RMK A01 T10091023  RH  090%=      5-min Rain = 0
KWE1 090300Z 28005KT M01/M02 A3031 RMK A01 T10091024  RH  090%=      5-min Rain = 0
KWE1 090301Z 28004KT M01/M02 A3031 RMK A01 T10091024  RH  090%=      5-min Rain = 0
KWE1 090302Z 28004KT M01/M02 A3031 RMK A01 T10101024  RH  090%=      5-min Rain = 0
KWE1 090303Z 28004KT M01/M03 A3031 RMK A01 T10101025  RH  090%=      5-min Rain = 0
KWE1 090304Z 28004KT M01/M03 A3031 RMK A01 T10101025  RH  090%=      5-min Rain = 0
KWE1 090305Z 28004KT M01/M02 A3031 RMK A01 T10101024  RH  090%=      5-min Rain = 0
KWE1 090306Z 28004KT M01/M03 A3031 RMK A01 T10101025  RH  090%=      5-min Rain = 0
KWE1 090307Z 28004KT M01/M03 A3031 RMK A01 T10101025  RH  090%=      5-min Rain = 0
KWE1 090308Z 28004KT M01/M03 A3031 RMK A01 T10101025  RH  090%=      5-min Rain = 0
KWE1 090309Z 28004KT M01/M03 A3031 RMK A01 T10101025  RH  090%=      5-min Rain = 0
KWE1 090310Z 28004KT M01/M03 A3031 RMK A01 T10101025  RH  090%=      5-min Rain = 0
KWE1 090311Z 28004KT M01/M03 A3031 RMK A01 T10111025  RH  090%=      5-min Rain = 0
KWE1 090312Z 28004KT M01/M03 A3031 RMK A01 T10111025  RH  090%=      5-min Rain = 0
KWE1 090313Z 28004KT M01/M03 A3031 RMK A01 T10111026  RH  090%=      5-min Rain = 0
KWE1 090314Z 27003KT M01/M03 A3031 RMK A01 T10111026  RH  090%=      5-min Rain = 0
KWE1 090315Z 28003KT M01/M03 A3031 RMK A01 T10121026  RH  090%=      5-min Rain = 0
KWE1 090316Z 28004KT M01/M03 A3031 RMK A01 T10121026  RH  090%=      5-min Rain = 0
KWE1 090317Z 28003KT M01/M03 A3031 RMK A01 T10121026  RH  090%=      5-min Rain = 0
KWE1 090318Z 28004KT M01/M03 A3031 RMK A01 T10131027  RH  090%=      5-min Rain = 0
KWE1 090319Z 27004KT M01/M03 A3031 RMK A01 T10131027  RH  090%=      5-min Rain = 0
KWE1 090320Z 27004KT M01/M03 A3031 RMK A01 T10131027  RH  090%=      5-min Rain = 0
KWE1 090321Z 27004KT M01/M03 A3031 RMK A01 T10131027  RH  090%=      5-min Rain = 0
KWE1 090322Z 27004KT M01/M03 A3031 RMK A01 T10131027  RH  090%=      5-min Rain = 0
KWE1 090323Z 28003KT M01/M03 A3031 RMK A01 T10131027  RH  090%=      5-min Rain = 0
KWE1 090324Z 27003KT M01/M03 A3031 RMK A01 T10131027  RH  090%=      5-min Rain = 0
KWE1 090325Z 27003KT M01/M03 A3031 RMK A01 T10131027  RH  090%=      5-min Rain = 0
KWE1 090326Z 27004KT M01/M03 A3031 RMK A01 T10131027  RH  091%=      5-min Rain = 0
KWE1 090327Z 27004KT M01/M03 A3031 RMK A01 T10131027  RH  091%=      5-min Rain = 0
KWE1 090328Z 27004KT M01/M03 A3031 RMK A01 T10141027  RH  091%=      5-min Rain = 0
KWE1 090329Z 27004KT M01/M03 A3031 RMK A01 T10131027  RH  091%=      5-min Rain = 0
KWE1 090330Z 26004KT M01/M03 A3031 RMK A01 T10141027  RH  091%=      5-min Rain = 0
KWE1 090331Z 27005KT M01/M03 A3031 RMK A01 T10131027  RH  091%=      5-min Rain = 0
KWE1 090332Z 27004KT M01/M03 A3031 RMK A01 T10131027  RH  091%=      5-min Rain = 0
KWE1 090333Z 27004KT M01/M03 A3031 RMK A01 T10131026  RH  091%=      5-min Rain = 0
KWE1 090334Z 27005KT M01/M03 A3031 RMK A01 T10131026  RH  091%=      5-min Rain = 0
KWE1 090335Z 27005KT M01/M03 A3031 RMK A01 T10131027  RH  091%=      5-min Rain = 0
KWE1 090336Z 27004KT M01/M03 A3031 RMK A01 T10131026  RH  091%=      5-min Rain = 0
KWE1 090337Z 27004KT M01/M03 A3031 RMK A01 T10131027  RH  091%=      5-min Rain = 0
KWE1 090338Z 27005KT M01/M03 A3031 RMK A01 T10131027  RH  090%=      5-min Rain = 0
KWE1 090339Z 27003KT M01/M03 A3031 RMK A01 T10131026  RH  090%=      5-min Rain = 0
KWE1 090340Z 27004KT M01/M03 A3031 RMK A01 T10131027  RH  090%=      5-min Rain = 0
KWE1 090341Z 27003KT M01/M03 A3031 RMK A01 T10131027  RH  090%=      5-min Rain = 0
KWE1 090342Z 27003KT M01/M03 A3031 RMK A01 T10131026  RH  090%=      5-min Rain = 0
KWE1 090343Z 27003KT M01/M03 A3031 RMK A01 T10131027  RH  090%=      5-min Rain = 0
KWE1 090344Z 26002KT M01/M03 A3031 RMK A01 T10131027  RH  090%=      5-min Rain = 0
KWE1 090345Z 27002KT M01/M03 A3031 RMK A01 T10141028  RH  090%=      5-min Rain = 0
KWE1 090346Z 27002KT M01/M03 A3031 RMK A01 T10141029  RH  090%=      5-min Rain = 0
KWE1 090347Z 27003KT M02/M03 A3031 RMK A01 T10151029  RH  090%=      5-min Rain = 0
KWE1 090348Z 27003KT M02/M03 A3031 RMK A01 T10151029  RH  090%=      5-min Rain = 0
KWE1 090349Z 28003KT M02/M03 A3031 RMK A01 T10151029  RH  090%=      5-min Rain = 0
KWE1 090350Z 27003KT M02/M03 A3031 RMK A01 T10151029  RH  090%=      5-min Rain = 0
KWE1 090351Z 27003KT M02/M03 A3031 RMK A01 T10151029  RH  090%=      5-min Rain = 0
KWE1 090352Z 27004KT M02/M03 A3031 RMK A01 T10151029  RH  091%=      5-min Rain = 0
KWE1 090353Z 27004KT M02/M03 A3031 RMK A01 T10151028  RH  091%=      5-min Rain = 0
KWE1 090354Z 27002KT M02/M03 A3031 RMK A01 T10151028  RH  091%=      5-min Rain = 0
KWE1 090355Z 27003KT M02/M03 A3031 RMK A01 T10151028  RH  091%=      5-min Rain = 0
KWE1 090356Z 28004KT M02/M03 A3031 RMK A01 T10151029  RH  091%=      5-min Rain = 0
KWE1 090357Z 27003KT M02/M03 A3031 RMK A01 T10151029  RH  091%=      5-min Rain = 0
KWE1 090358Z 26003KT M02/M03 A3031 RMK A01 T10151029  RH  091%=      5-min Rain = 0
KWE1 090359Z 27002KT M02/M03 A3031 RMK A01 T10151029  RH  090%=      5-min Rain = 0
KWE1 090400Z 26002KT M02/M03 A3031 RMK A01 T10161030  RH  090%=      5-min Rain = 0
KWE1 090401Z 27003KT M02/M03 A3031 RMK A01 T10161030  RH  090%=      5-min Rain = 0
KWE1 090402Z 27002KT M02/M03 A3031 RMK A01 T10161030  RH  090%=      5-min Rain = 0
KWE1 090403Z 27002KT M02/M03 A3031 RMK A01 T10161030  RH  090%=      5-min Rain = 0
KWE1 090404Z 25002KT M02/M03 A3031 RMK A01 T10161030  RH  090%=      5-min Rain = 0
KWE1 090405Z 26002KT M02/M03 A3031 RMK A01 T10171030  RH  090%=      5-min Rain = 0
KWE1 090406Z 26003KT M02/M03 A3031 RMK A01 T10171031  RH  090%=      5-min Rain = 0
KWE1 090407Z 26003KT M02/M03 A3031 RMK A01 T10171031  RH  090%=      5-min Rain = 0
KWE1 090408Z 26002KT M02/M03 A3031 RMK A01 T10171031  RH  090%=      5-min Rain = 0
KWE1 090409Z 26002KT M02/M03 A3031 RMK A01 T10171031  RH  090%=      5-min Rain = 0
KWE1 090410Z 25002KT M02/M03 A3031 RMK A01 T10171031  RH  090%=      5-min Rain = 0
KWE1 090411Z 26003KT M02/M03 A3031 RMK A01 T10181032  RH  090%=      5-min Rain = 0
KWE1 090412Z 25002KT M02/M03 A3031 RMK A01 T10181032  RH  090%=      5-min Rain = 0
KWE1 090413Z 26003KT M02/M03 A3031 RMK A01 T10181032  RH  090%=      5-min Rain = 0
KWE1 090414Z 26002KT M02/M03 A3031 RMK A01 T10191033  RH  090%=      5-min Rain = 0
KWE1 090415Z 26003KT M02/M03 A3032 RMK A01 T10191032  RH  090%=      5-min Rain = 0
KWE1 090416Z 26003KT M02/M03 A3032 RMK A01 T10181032  RH  090%=      5-min Rain = 0
KWE1 090417Z 26003KT M02/M03 A3032 RMK A01 T10191032  RH  090%=      5-min Rain = 0
KWE1 090418Z 26004KT M02/M03 A3032 RMK A01 T10191032  RH  091%=      5-min Rain = 0
KWE1 090419Z 26003KT M02/M03 A3032 RMK A01 T10191032  RH  091%=      5-min Rain = 0
KWE1 090420Z 26003KT M02/M03 A3032 RMK A01 T10191033  RH  091%=      5-min Rain = 0
KWE1 090421Z 26004KT M02/M03 A3032 RMK A01 T10201033  RH  090%=      5-min Rain = 0
KWE1 090422Z 26004KT M02/M03 A3032 RMK A01 T10201033  RH  091%=      5-min Rain = 0
KWE1 090423Z 26004KT M02/M03 A3032 RMK A01 T10201033  RH  091%=      5-min Rain = 0
KWE1 090424Z 26004KT M02/M03 A3032 RMK A01 T10201033  RH  091%=      5-min Rain = 0
KWE1 090425Z 26004KT M02/M03 A3032 RMK A01 T10191033  RH  091%=      5-min Rain = 0
KWE1 090426Z 26004KT M02/M03 A3032 RMK A01 T10191033  RH  091%=      5-min Rain = 0
KWE1 090427Z 26004KT M02/M03 A3032 RMK A01 T10191033  RH  091%=      5-min Rain = 0
KWE1 090428Z 26004KT M02/M03 A3032 RMK A01 T10201033  RH  091%=      5-min Rain = 0
KWE1 090429Z 26004KT M02/M03 A3032 RMK A01 T10201033  RH  091%=      5-min Rain = 0
KWE1 090430Z 26004KT M02/M03 A3032 RMK A01 T10201034  RH  090%=      5-min Rain = 0
KWE1 090431Z 26004KT M02/M03 A3032 RMK A01 T10211034  RH  090%=      5-min Rain = 0
KWE1 090432Z 26004KT M02/M03 A3032 RMK A01 T10201034  RH  090%=      5-min Rain = 0
KWE1 090433Z 26004KT M02/M03 A3032 RMK A01 T10201034  RH  090%=      5-min Rain = 0
KWE1 090434Z 26004KT M02/M03 A3032 RMK A01 T10211034  RH  090%=      5-min Rain = 0
KWE1 090435Z 26004KT M02/M03 A3032 RMK A01 T10211034  RH  090%=      5-min Rain = 0
KWE1 090436Z 26004KT M02/M04 A3032 RMK A01 T10211035  RH  090%=      5-min Rain = 0
KWE1 090437Z 26004KT M02/M04 A3032 RMK A01 T10211035  RH  090%=      5-min Rain = 0
KWE1 090438Z 26004KT M02/M04 A3032 RMK A01 T10211035  RH  090%=      5-min Rain = 0
KWE1 090439Z 25004KT M02/M04 A3032 RMK A01 T10211035  RH  090%=      5-min Rain = 0
KWE1 090440Z 26004KT M02/M04 A3032 RMK A01 T10211035  RH  090%=      5-min Rain = 0
KWE1 090441Z 25004KT M02/M04 A3032 RMK A01 T10211035  RH  090%=      5-min Rain = 0
KWE1 090442Z 26004KT M02/M04 A3032 RMK A01 T10211035  RH  090%=      5-min Rain = 0
KWE1 090443Z 26004KT M02/M04 A3032 RMK A01 T10211035  RH  090%=      5-min Rain = 0
KWE1 090444Z 26003KT M02/M04 A3032 RMK A01 T10221036  RH  090%=      5-min Rain = 0
KWE1 090445Z 26003KT M02/M04 A3032 RMK A01 T10221036  RH  090%=      5-min Rain = 0
KWE1 090446Z 26003KT M02/M04 A3032 RMK A01 T10221036  RH  090%=      5-min Rain = 0
KWE1 090447Z 26003KT M02/M04 A3032 RMK A01 T10221036  RH  090%=      5-min Rain = 0
KWE1 090448Z 26003KT M02/M04 A3032 RMK A01 T10221036  RH  090%=      5-min Rain = 0
KWE1 090449Z 26003KT M02/M04 A3032 RMK A01 T10221036  RH  090%=      5-min Rain = 0
KWE1 090450Z 25003KT M02/M04 A3032 RMK A01 T10221036  RH  090%=      5-min Rain = 0
KWE1 090451Z 26004KT M02/M04 A3032 RMK A01 T10221037  RH  090%=      5-min Rain = 0
KWE1 090452Z 26004KT M02/M04 A3032 RMK A01 T10221037  RH  090%=      5-min Rain = 0
KWE1 090453Z 25004KT M02/M04 A3032 RMK A01 T10221037  RH  090%=      5-min Rain = 0
KWE1 090454Z 26004KT M02/M04 A3032 RMK A01 T10231037  RH  090%=      5-min Rain = 0
KWE1 090455Z 26003KT M02/M04 A3033 RMK A01 T10221037  RH  090%=      5-min Rain = 0
KWE1 090456Z 26003KT M02/M04 A3033 RMK A01 T10231038  RH  090%=      5-min Rain = 0
KWE1 090457Z 26003KT M02/M04 A3033 RMK A01 T10231037  RH  090%=      5-min Rain = 0
KWE1 090458Z 25004KT M02/M04 A3033 RMK A01 T10231037  RH  090%=      5-min Rain = 0
KWE1 090459Z 26004KT M02/M04 A3033 RMK A01 T10231038  RH  090%=      5-min Rain = 0
KWE1 090500Z 26004KT M02/M04 A3033 RMK A01 T10231038  RH  090%=      5-min Rain = 0
KWE1 090501Z 26004KT M02/M04 A3033 RMK A01 T10231038  RH  090%=      5-min Rain = 0
KWE1 090502Z 26005KT M02/M04 A3033 RMK A01 T10231038  RH  090%=      5-min Rain = 0
KWE1 090503Z 26004KT M02/M04 A3033 RMK A01 T10231038  RH  090%=      5-min Rain = 0
KWE1 090504Z 26004KT M02/M04 A3033 RMK A01 T10231038  RH  089%=      5-min Rain = 0
KWE1 090505Z 26004KT M02/M04 A3033 RMK A01 T10231038  RH  089%=      5-min Rain = 0
KWE1 090506Z 26004KT M02/M04 A3033 RMK A01 T10231038  RH  089%=      5-min Rain = 0
KWE1 090507Z 26004KT M02/M04 A3033 RMK A01 T10231038  RH  089%=      5-min Rain = 0
KWE1 090508Z 26004KT M02/M04 A3033 RMK A01 T10231038  RH  089%=      5-min Rain = 0
KWE1 090509Z 26003KT M02/M04 A3033 RMK A01 T10231039  RH  089%=      5-min Rain = 0
KWE1 090510Z 26003KT M02/M04 A3033 RMK A01 T10231039  RH  089%=      5-min Rain = 0
KWE1 090511Z 27003KT M02/M04 A3033 RMK A01 T10231039  RH  089%=      5-min Rain = 0
KWE1 090512Z 27003KT M02/M04 A3033 RMK A01 T10231039  RH  089%=      5-min Rain = 0
KWE1 090513Z 27003KT M02/M04 A3033 RMK A01 T10231039  RH  089%=      5-min Rain = 0
KWE1 090514Z 27003KT M02/M04 A3033 RMK A01 T10231039  RH  089%=      5-min Rain = 0
KWE1 090515Z 27003KT M02/M04 A3033 RMK A01 T10231039  RH  089%=      5-min Rain = 0
KWE1 090516Z 27002KT M02/M04 A3033 RMK A01 T10231039  RH  089%=      5-min Rain = 0
KWE1 090517Z 27002KT M02/M04 A3033 RMK A01 T10231039  RH  089%=      5-min Rain = 0
KWE1 090518Z 27002KT M02/M04 A3033 RMK A01 T10231039  RH  089%=      5-min Rain = 0
KWE1 090519Z 27002KT M02/M04 A3033 RMK A01 T10231039  RH  089%=      5-min Rain = 0
KWE1 090520Z 26002KT M02/M04 A3033 RMK A01 T10231039  RH  089%=      5-min Rain = 0
KWE1 090521Z 27002KT M02/M04 A3033 RMK A01 T10241039  RH  089%=      5-min Rain = 0
KWE1 090522Z 27003KT M02/M04 A3033 RMK A01 T10241040  RH  089%=      5-min Rain = 0
KWE1 090523Z 27002KT M02/M04 A3033 RMK A01 T10241039  RH  089%=      5-min Rain = 0
KWE1 090524Z 26002KT M02/M04 A3033 RMK A01 T10241039  RH  089%=      5-min Rain = 0
KWE1 090525Z 27003KT M02/M04 A3033 RMK A01 T10241039  RH  089%=      5-min Rain = 0
KWE1 090526Z 27002KT M02/M04 A3033 RMK A01 T10241040  RH  089%=      5-min Rain = 0
KWE1 090527Z 27002KT M02/M04 A3033 RMK A01 T10241040  RH  089%=      5-min Rain = 0
KWE1 090528Z 27002KT M02/M04 A3033 RMK A01 T10241040  RH  089%=      5-min Rain = 0
KWE1 090529Z 28002KT M02/M04 A3033 RMK A01 T10241040  RH  089%=      5-min Rain = 0
KWE1 090530Z 28002KT M03/M04 A3033 RMK A01 T10251040  RH  089%=      5-min Rain = 0
KWE1 090531Z 28001KT M03/M04 A3033 RMK A01 T10251040  RH  089%=      5-min Rain = 0
KWE1 090532Z 28002KT M03/M04 A3033 RMK A01 T10251041  RH  089%=      5-min Rain = 0
KWE1 090533Z 29003KT M03/M04 A3032 RMK A01 T10251040  RH  089%=      5-min Rain = 0
KWE1 090534Z 29003KT M03/M04 A3032 RMK A01 T10251041  RH  089%=      5-min Rain = 0
KWE1 090535Z 29002KT M03/M04 A3032 RMK A01 T10251041  RH  089%=      5-min Rain = 0
KWE1 090536Z 28002KT M03/M04 A3032 RMK A01 T10251041  RH  089%=      5-min Rain = 0
KWE1 090537Z 28003KT M03/M04 A3032 RMK A01 T10251041  RH  089%=      5-min Rain = 0
KWE1 090538Z 28003KT M03/M04 A3032 RMK A01 T10251041  RH  089%=      5-min Rain = 0
KWE1 090539Z 28003KT M03/M04 A3032 RMK A01 T10251041  RH  089%=      5-min Rain = 0
KWE1 090540Z 28002KT M03/M04 A3032 RMK A01 T10251041  RH  089%=      5-min Rain = 0
KWE1 090541Z 29003KT M03/M04 A3032 RMK A01 T10251041  RH  089%=      5-min Rain = 0
KWE1 090542Z 28002KT M03/M04 A3032 RMK A01 T10251041  RH  089%=      5-min Rain = 0
KWE1 090543Z 28003KT M03/M04 A3032 RMK A01 T10251041  RH  089%=      5-min Rain = 0
KWE1 090544Z 28003KT M03/M04 A3032 RMK A01 T10261042  RH  088%=      5-min Rain = 0
KWE1 090545Z 28003KT M03/M04 A3032 RMK A01 T10261042  RH  088%=      5-min Rain = 0
KWE1 090546Z 28003KT M03/M04 A3032 RMK A01 T10261042  RH  088%=      5-min Rain = 0
KWE1 090547Z 28003KT M03/M04 A3032 RMK A01 T10251042  RH  088%=      5-min Rain = 0
KWE1 090548Z 27002KT M03/M04 A3032 RMK A01 T10261042  RH  088%=      5-min Rain = 0
KWE1 090549Z 27003KT M03/M04 A3033 RMK A01 T10261042  RH  088%=      5-min Rain = 0
KWE1 090550Z 27003KT M03/M04 A3033 RMK A01 T10251042  RH  088%=      5-min Rain = 0
KWE1 090551Z 27003KT M03/M04 A3033 RMK A01 T10251042  RH  088%=      5-min Rain = 0
KWE1 090552Z 27004KT M03/M04 A3033 RMK A01 T10261042  RH  088%=      5-min Rain = 0
KWE1 090553Z 27003KT M03/M04 A3033 RMK A01 T10261042  RH  089%=      5-min Rain = 0
KWE1 090554Z 27003KT M03/M04 A3033 RMK A01 T10261042  RH  089%=      5-min Rain = 0
KWE1 090555Z 27003KT M03/M04 A3033 RMK A01 T10251042  RH  089%=      5-min Rain = 0
KWE1 090556Z 28003KT M03/M04 A3033 RMK A01 T10251042  RH  089%=      5-min Rain = 0
KWE1 090557Z 26002KT M03/M04 A3033 RMK A01 T10251042  RH  089%=      5-min Rain = 0
KWE1 090558Z 27003KT M03/M04 A3033 RMK A01 T10251042  RH  089%=      5-min Rain = 0
KWE1 090559Z 26003KT M03/M04 A3033 RMK A01 T10251042  RH  089%=      5-min Rain = 0

Page generated in 0.0822 seconds.